Wetterdaten: Dienstag, 18.04.2017
Datum Zeit Temp. A. Feuchte A. Luftdruck Regen Wind Richtung Richtung Sonnenschein ET UV Solar Taupunkt Windchill Windben Empfang
18.04.2017 00:01 4,5 C 90 % 1015,0 hPa 0,0 l/m 12,8 km/h (3 Bft) W 271 0 min 0,000 mm 0,0 UV-I 0 W/m 3,0 C -0,3 C 17,7 km/h (3 Bft) 100,00 %
18.04.2017 00:02 4,5 C 90 % 1015,0 hPa 0,0 l/m 13,9 km/h (3 Bft) W 268 0 min 0,000 mm 0,0 UV-I 0 W/m 3,0 C -0,9 C 20,9 km/h (4 Bft) 15,38 %
18.04.2017 00:04 4,4 C 90 % 1015,0 hPa 0,0 l/m 14,8 km/h (3 Bft) W-NW 297 0 min 0,000 mm 0,0 UV-I 0 W/m 2,9 C -1,5 C 24,1 km/h (4 Bft) 72,97 %
18.04.2017 00:06 4,4 C 90 % 1015,1 hPa 0,0 l/m 16,5 km/h (3 Bft) W-SW 257 0 min 0,000 mm 0,0 UV-I 0 W/m 2,9 C -2,4 C 29,0 km/h (5 Bft) 98,00 %
18.04.2017 00:08 4,4 C 90 % 1015,1 hPa 0,0 l/m 14,8 km/h (3 Bft) W-SW 255 0 min 0,000 mm 0,0 UV-I 0 W/m 2,9 C -1,5 C 20,9 km/h (4 Bft) 98,00 %
18.04.2017 00:10 4,4 C 90 % 1015,1 hPa 0,0 l/m 11,3 km/h (2 Bft) W 268 0 min 0,000 mm 0,0 UV-I 0 W/m 2,9 C 0,5 C 19,3 km/h (3 Bft) 97,56 %
18.04.2017 00:12 4,3 C 90 % 1015,1 hPa 0,0 l/m 13,8 km/h (3 Bft) W-SW 251 0 min 0,000 mm 0,0 UV-I 0 W/m 2,8 C -1,1 C 22,5 km/h (4 Bft) 97,73 %
18.04.2017 00:14 4,3 C 90 % 1015,1 hPa 0,0 l/m 9,6 km/h (2 Bft) W 273 0 min 0,000 mm 0,0 UV-I 0 W/m 2,8 C 1,6 C 17,7 km/h (3 Bft) 93,33 %
18.04.2017 00:16 4,3 C 90 % 1015,1 hPa 0,0 l/m 11,3 km/h (2 Bft) W 278 0 min 0,000 mm 0,0 UV-I 0 W/m 2,8 C 0,4 C 19,3 km/h (3 Bft) 97,73 %
18.04.2017 00:18 4,3 C 90 % 1015,1 hPa 0,0 l/m 11,3 km/h (2 Bft) W 267 0 min 0,000 mm 0,0 UV-I 0 W/m 2,8 C 0,4 C 14,5 km/h (3 Bft) 97,37 %
18.04.2017 00:20 4,2 C 90 % 1015,2 hPa 0,0 l/m 9,0 km/h (2 Bft) W 272 0 min 0,000 mm 0,0 UV-I 0 W/m 2,7 C 1,9 C 16,1 km/h (3 Bft) 95,12 %
18.04.2017 00:22 4,2 C 90 % 1015,2 hPa 0,0 l/m 11,1 km/h (2 Bft) SW 223 0 min 0,000 mm 0,0 UV-I 0 W/m 2,7 C 0,4 C 22,5 km/h (4 Bft) 98,11 %
18.04.2017 00:24 4,2 C 90 % 1015,1 hPa 0,0 l/m 12,4 km/h (3 Bft) W 278 0 min 0,000 mm 0,0 UV-I 0 W/m 2,7 C -0,4 C 17,7 km/h (3 Bft) 98,00 %
18.04.2017 00:26 4,2 C 90 % 1015,2 hPa 0,0 l/m 9,8 km/h (2 Bft) W 260 0 min 0,000 mm 0,0 UV-I 0 W/m 2,7 C 1,3 C 19,3 km/h (3 Bft) 97,87 %
18.04.2017 00:28 4,2 C 90 % 1015,1 hPa 0,0 l/m 10,0 km/h (2 Bft) SW 229 0 min 0,000 mm 0,0 UV-I 0 W/m 2,7 C 1,2 C 17,7 km/h (3 Bft) 97,87 %
18.04.2017 00:30 4,1 C 90 % 1015,2 hPa 0,0 l/m 13,8 km/h (3 Bft) W-SW 252 0 min 0,000 mm 0,0 UV-I 0 W/m 2,6 C -1,4 C 24,1 km/h (4 Bft) 98,00 %
18.04.2017 00:32 4,1 C 90 % 1015,2 hPa 0,0 l/m 8,4 km/h (2 Bft) W-SW 243 0 min 0,000 mm 0,0 UV-I 0 W/m 2,6 C 2,3 C 12,9 km/h (3 Bft) 97,73 %
18.04.2017 00:34 4,1 C 90 % 1015,2 hPa 0,0 l/m 8,6 km/h (2 Bft) W-NW 291 0 min 0,000 mm 0,0 UV-I 0 W/m 2,6 C 2,2 C 17,7 km/h (3 Bft) 96,23 %
18.04.2017 00:36 4,1 C 90 % 1015,2 hPa 0,0 l/m 10,4 km/h (2 Bft) W-NW 294 0 min 0,000 mm 0,0 UV-I 0 W/m 2,6 C 0,8 C 20,9 km/h (4 Bft) 100,00 %
18.04.2017 00:38 4,1 C 90 % 1015,2 hPa 0,0 l/m 11,6 km/h (2 Bft) W 271 0 min 0,000 mm 0,0 UV-I 0 W/m 2,6 C -0,0 C 19,3 km/h (3 Bft) 96,36 %
18.04.2017 00:40 4,1 C 90 % 1015,3 hPa 0,0 l/m 7,0 km/h (2 Bft) W-NW 285 0 min 0,000 mm 0,0 UV-I 0 W/m 2,6 C 3,6 C 14,5 km/h (3 Bft) 100,00 %
18.04.2017 00:42 4,1 C 90 % 1015,2 hPa 0,0 l/m 5,5 km/h (1 Bft) W-NW 294 0 min 0,000 mm 0,0 UV-I 0 W/m 2,6 C 4,1 C 12,9 km/h (3 Bft) 96,43 %
18.04.2017 00:44 4,1 C 90 % 1015,3 hPa 0,0 l/m 9,7 km/h (2 Bft) SW 234 0 min 0,000 mm 0,0 UV-I 0 W/m 2,6 C 1,3 C 14,5 km/h (3 Bft) 98,21 %
18.04.2017 00:46 4,1 C 90 % 1015,3 hPa 0,0 l/m 10,3 km/h (2 Bft) W 267 0 min 0,000 mm 0,0 UV-I 0 W/m 2,6 C 0,9 C 16,1 km/h (3 Bft) 100,00 %
18.04.2017 00:48 4,1 C 90 % 1015,3 hPa 0,0 l/m 9,5 km/h (2 Bft) W-SW 250 0 min 0,000 mm 0,0 UV-I 0 W/m 2,6 C 1,4 C 14,5 km/h (3 Bft) 100,00 %
18.04.2017 00:50 4,1 C 90 % 1015,3 hPa 0,0 l/m 10,9 km/h (2 Bft) W-SW 243 0 min 0,000 mm 0,0 UV-I 0 W/m 2,6 C 0,4 C 17,7 km/h (3 Bft) 98,00 %
18.04.2017 00:52 4,1 C 90 % 1015,3 hPa 0,0 l/m 11,8 km/h (2 Bft) W-NW 291 0 min 0,000 mm 0,0 UV-I 0 W/m 2,6 C -0,2 C 19,3 km/h (3 Bft) 100,00 %
18.04.2017 00:54 4,1 C 90 % 1015,2 hPa 0,0 l/m 13,7 km/h (3 Bft) SW 234 0 min 0,000 mm 0,0 UV-I 0 W/m 2,6 C -1,3 C 20,9 km/h (4 Bft) 100,00 %
18.04.2017 00:56 4,2 C 90 % 1015,3 hPa 0,0 l/m 10,0 km/h (2 Bft) W-SW 252 0 min 0,000 mm 0,0 UV-I 0 W/m 2,7 C 1,2 C 12,9 km/h (3 Bft) 100,00 %
18.04.2017 00:58 4,2 C 90 % 1015,3 hPa 0,0 l/m 9,6 km/h (2 Bft) SW 234 0 min 0,000 mm 0,0 UV-I 0 W/m 2,7 C 1,5 C 14,5 km/h (3 Bft) 96,43 %
18.04.2017 01:00 4,2 C 91 % 1015,3 hPa 0,0 l/m 11,0 km/h (2 Bft) SW 226 0 min 0,000 mm 0,0 UV-I 0 W/m 2,9 C 0,5 C 17,7 km/h (3 Bft) 100,00 %
18.04.2017 01:02 4,2 C 91 % 1015,3 hPa 0,0 l/m 11,3 km/h (2 Bft) W-SW 251 0 min 0,000 mm 0,0 UV-I 0 W/m 2,9 C 0,3 C 16,1 km/h (3 Bft) 100,00 %
18.04.2017 01:04 4,2 C 91 % 1015,3 hPa 0,0 l/m 13,3 km/h (3 Bft) W-SW 248 0 min 0,000 mm 0,0 UV-I 0 W/m 2,9 C -1,0 C 17,7 km/h (3 Bft) 97,37 %
18.04.2017 01:06 4,2 C 91 % 1015,3 hPa 0,0 l/m 14,4 km/h (3 Bft) W-SW 255 0 min 0,000 mm 0,0 UV-I 0 W/m 2,9 C -1,6 C 22,5 km/h (4 Bft) 100,00 %
18.04.2017 01:08 4,2 C 91 % 1015,3 hPa 0,0 l/m 14,0 km/h (3 Bft) SW 236 0 min 0,000 mm 0,0 UV-I 0 W/m 2,9 C -1,4 C 19,3 km/h (3 Bft) 100,00 %
18.04.2017 01:10 4,2 C 91 % 1015,3 hPa 0,0 l/m 12,6 km/h (3 Bft) W-SW 240 0 min 0,000 mm 0,0 UV-I 0 W/m 2,9 C -0,5 C 17,7 km/h (3 Bft) 100,00 %
18.04.2017 01:12 4,2 C 90 % 1015,3 hPa 0,0 l/m 10,7 km/h (2 Bft) W-SW 244 0 min 0,000 mm 0,0 UV-I 0 W/m 2,7 C 0,7 C 17,7 km/h (3 Bft) 98,31 %
18.04.2017 01:14 4,2 C 90 % 1015,3 hPa 0,0 l/m 10,5 km/h (2 Bft) W-SW 251 0 min 0,000 mm 0,0 UV-I 0 W/m 2,7 C 0,8 C 16,1 km/h (3 Bft) 97,73 %
18.04.2017 01:16 4,2 C 90 % 1015,3 hPa 0,0 l/m 10,6 km/h (2 Bft) W-SW 248 0 min 0,000 mm 0,0 UV-I 0 W/m 2,7 C 0,8 C 16,1 km/h (3 Bft) 97,44 %
18.04.2017 01:18 4,3 C 91 % 1015,2 hPa 0,0 l/m 13,0 km/h (3 Bft) W-SW 257 0 min 0,000 mm 0,0 UV-I 0 W/m 3,0 C -0,7 C 20,9 km/h (4 Bft) 98,11 %
18.04.2017 01:20 4,3 C 90 % 1015,3 hPa 0,0 l/m 11,8 km/h (2 Bft) N-NW 327 0 min 0,000 mm 0,0 UV-I 0 W/m 2,8 C 0,1 C 19,3 km/h (3 Bft) 97,37 %
18.04.2017 01:22 4,3 C 90 % 1015,3 hPa 0,0 l/m 14,0 km/h (3 Bft) W 261 0 min 0,000 mm 0,0 UV-I 0 W/m 2,8 C -1,2 C 24,1 km/h (4 Bft) 97,56 %
18.04.2017 01:24 4,3 C 90 % 1015,2 hPa 0,0 l/m 13,8 km/h (3 Bft) W-SW 255 0 min 0,000 mm 0,0 UV-I 0 W/m 2,8 C -1,1 C 20,9 km/h (4 Bft) 98,31 %
18.04.2017 01:26 4,3 C 90 % 1015,2 hPa 0,0 l/m 15,7 km/h (3 Bft) W-SW 250 0 min 0,000 mm 0,0 UV-I 0 W/m 2,8 C -2,1 C 22,5 km/h (4 Bft) 96,23 %
18.04.2017 01:28 4,3 C 90 % 1015,3 hPa 0,0 l/m 14,1 km/h (3 Bft) W 269 0 min 0,000 mm 0,0 UV-I 0 W/m 2,8 C -1,3 C 19,3 km/h (3 Bft) 97,73 %
18.04.2017 01:30 4,3 C 90 % 1015,2 hPa 0,0 l/m 12,9 km/h (3 Bft) W-SW 255 0 min 0,000 mm 0,0 UV-I 0 W/m 2,8 C -0,6 C 20,9 km/h (4 Bft) 97,73 %
18.04.2017 01:32 4,3 C 90 % 1015,2 hPa 0,0 l/m 12,7 km/h (3 Bft) W 265 0 min 0,000 mm 0,0 UV-I 0 W/m 2,8 C -0,5 C 20,9 km/h (4 Bft) 96,23 %
18.04.2017 01:34 4,3 C 90 % 1015,2 hPa 0,0 l/m 13,3 km/h (3 Bft) W-SW 244 0 min 0,000 mm 0,0 UV-I 0 W/m 2,8 C -0,8 C 24,1 km/h (4 Bft) 97,73 %
18.04.2017 01:36 4,3 C 90 % 1015,3 hPa 0,0 l/m 12,3 km/h (3 Bft) W-SW 254 0 min 0,000 mm 0,0 UV-I 0 W/m 2,8 C -0,2 C 19,3 km/h (3 Bft) 98,00 %
18.04.2017 01:38 4,4 C 90 % 1015,2 hPa 0,0 l/m 11,3 km/h (2 Bft) W 263 0 min 0,000 mm 0,0 UV-I 0 W/m 2,9 C 0,5 C 14,5 km/h (3 Bft) 97,37 %
18.04.2017 01:40 4,3 C 90 % 1015,2 hPa 0,0 l/m 15,7 km/h (3 Bft) W 269 0 min 0,000 mm 0,0 UV-I 0 W/m 2,8 C -2,1 C 25,7 km/h (4 Bft) 98,00 %
18.04.2017 01:42 4,3 C 90 % 1015,3 hPa 0,0 l/m 12,1 km/h (2 Bft) SW 230 0 min 0,000 mm 0,0 UV-I 0 W/m 2,8 C -0,1 C 20,9 km/h (4 Bft) 97,56 %
18.04.2017 01:44 4,4 C 90 % 1015,2 hPa 0,0 l/m 14,3 km/h (3 Bft) W 269 0 min 0,000 mm 0,0 UV-I 0 W/m 2,9 C -1,3 C 20,9 km/h (4 Bft) 98,21 %
18.04.2017 01:46 4,4 C 90 % 1015,3 hPa 0,0 l/m 13,5 km/h (3 Bft) W-SW 251 0 min 0,000 mm 0,0 UV-I 0 W/m 2,9 C -0,8 C 19,3 km/h (3 Bft) 97,73 %
18.04.2017 01:48 4,4 C 90 % 1015,2 hPa 0,0 l/m 13,2 km/h (3 Bft) W-SW 256 0 min 0,000 mm 0,0 UV-I 0 W/m 2,9 C -0,7 C 22,5 km/h (4 Bft) 100,00 %
18.04.2017 01:50 4,4 C 90 % 1015,2 hPa 0,0 l/m 10,5 km/h (2 Bft) W-SW 246 0 min 0,000 mm 0,0 UV-I 0 W/m 2,9 C 1,1 C 17,7 km/h (3 Bft) 97,87 %
18.04.2017 01:52 4,4 C 90 % 1015,2 hPa 0,0 l/m 12,3 km/h (3 Bft) W-SW 250 0 min 0,000 mm 0,0 UV-I 0 W/m 2,9 C -0,1 C 16,1 km/h (3 Bft) 100,00 %
18.04.2017 01:54 4,4 C 90 % 1015,2 hPa 0,0 l/m 12,7 km/h (3 Bft) W-SW 257 0 min 0,000 mm 0,0 UV-I 0 W/m 2,9 C -0,4 C 19,3 km/h (3 Bft) 98,28 %
18.04.2017 01:56 4,4 C 90 % 1015,2 hPa 0,0 l/m 11,2 km/h (2 Bft) W-SW 244 0 min 0,000 mm 0,0 UV-I 0 W/m 2,9 C 0,6 C 16,1 km/h (3 Bft) 100,00 %
18.04.2017 01:58 4,4 C 90 % 1015,2 hPa 0,0 l/m 10,7 km/h (2 Bft) SW 235 0 min 0,000 mm 0,0 UV-I 0 W/m 2,9 C 0,9 C 19,3 km/h (3 Bft) 100,00 %
18.04.2017 02:00 4,4 C 90 % 1015,2 hPa 0,0 l/m 8,8 km/h (2 Bft) W-SW 251 0 min 0,000 mm 0,0 UV-I 0 W/m 2,9 C 2,3 C 12,9 km/h (3 Bft) 100,00 %
18.04.2017 02:02 4,4 C 90 % 1015,2 hPa 0,0 l/m 13,1 km/h (3 Bft) W-SW 255 0 min 0,000 mm 0,0 UV-I 0 W/m 2,9 C -0,6 C 20,9 km/h (4 Bft) 100,00 %
18.04.2017 02:04 4,4 C 90 % 1015,1 hPa 0,0 l/m 11,3 km/h (2 Bft) W 263 0 min 0,000 mm 0,0 UV-I 0 W/m 2,9 C 0,5 C 16,1 km/h (3 Bft) 98,11 %
18.04.2017 02:06 4,4 C 90 % 1015,1 hPa 0,0 l/m 13,0 km/h (3 Bft) W-SW 252 0 min 0,000 mm 0,0 UV-I 0 W/m 2,9 C -0,5 C 17,7 km/h (3 Bft) 100,00 %
18.04.2017 02:08 4,4 C 90 % 1015,1 hPa 0,0 l/m 12,3 km/h (3 Bft) W-SW 256 0 min 0,000 mm 0,0 UV-I 0 W/m 2,9 C -0,1 C 20,9 km/h (4 Bft) 100,00 %
18.04.2017 02:10 4,4 C 90 % 1015,1 hPa 0,0 l/m 11,3 km/h (2 Bft) W-SW 245 0 min 0,000 mm 0,0 UV-I 0 W/m 2,9 C 0,5 C 17,7 km/h (3 Bft) 100,00 %
18.04.2017 02:12 4,4 C 90 % 1015,1 hPa 0,0 l/m 14,3 km/h (3 Bft) W-NW 285 0 min 0,000 mm 0,0 UV-I 0 W/m 2,9 C -1,3 C 20,9 km/h (4 Bft) 100,00 %
18.04.2017 02:14 4,4 C 89 % 1015,1 hPa 0,0 l/m 11,3 km/h (2 Bft) W-SW 252 0 min 0,000 mm 0,0 UV-I 0 W/m 2,7 C 0,5 C 17,7 km/h (3 Bft) 100,00 %
18.04.2017 02:16 4,4 C 89 % 1015,1 hPa 0,0 l/m 9,9 km/h (2 Bft) SW 234 0 min 0,000 mm 0,0 UV-I 0 W/m 2,7 C 1,5 C 16,1 km/h (3 Bft) 98,00 %
18.04.2017 02:18 4,4 C 89 % 1015,1 hPa 0,0 l/m 9,4 km/h (2 Bft) W-SW 242 0 min 0,000 mm 0,0 UV-I 0 W/m 2,7 C 1,9 C 17,7 km/h (3 Bft) 100,00 %
18.04.2017 02:20 4,4 C 89 % 1015,1 hPa 0,0 l/m 10,9 km/h (2 Bft) W 262 0 min 0,000 mm 0,0 UV-I 0 W/m 2,7 C 0,8 C 14,5 km/h (3 Bft) 100,00 %
18.04.2017 02:22 4,4 C 90 % 1015,1 hPa 0,0 l/m 10,2 km/h (2 Bft) W-SW 251 0 min 0,000 mm 0,0 UV-I 0 W/m 2,9 C 1,3 C 17,7 km/h (3 Bft) 100,00 %
18.04.2017 02:24 4,4 C 90 % 1015,0 hPa 0,0 l/m 12,3 km/h (3 Bft) W-SW 257 0 min 0,000 mm 0,0 UV-I 0 W/m 2,9 C -0,1 C 16,1 km/h (3 Bft) 97,01 %
18.04.2017 02:26 4,4 C 90 % 1015,0 hPa 0,0 l/m 11,5 km/h (2 Bft) W-SW 255 0 min 0,000 mm 0,0 UV-I 0 W/m 2,9 C 0,4 C 16,1 km/h (3 Bft) 100,00 %
18.04.2017 02:28 4,4 C 90 % 1015,0 hPa 0,0 l/m 13,2 km/h (3 Bft) W 268 0 min 0,000 mm 0,0 UV-I 0 W/m 2,9 C -0,7 C 20,9 km/h (4 Bft) 100,00 %
18.04.2017 02:30 4,4 C 89 % 1015,0 hPa 0,0 l/m 9,3 km/h (2 Bft) W-SW 251 0 min 0,000 mm 0,0 UV-I 0 W/m 2,7 C 1,9 C 12,9 km/h (3 Bft) 100,00 %
18.04.2017 02:32 4,4 C 89 % 1015,0 hPa 0,0 l/m 8,8 km/h (2 Bft) SW 236 0 min 0,000 mm 0,0 UV-I 0 W/m 2,7 C 2,3 C 14,5 km/h (3 Bft) 100,00 %
18.04.2017 02:34 4,4 C 89 % 1015,0 hPa 0,0 l/m 9,8 km/h (2 Bft) W-NW 287 0 min 0,000 mm 0,0 UV-I 0 W/m 2,7 C 1,6 C 14,5 km/h (3 Bft) 100,00 %
18.04.2017 02:36 4,4 C 89 % 1015,0 hPa 0,0 l/m 7,7 km/h (2 Bft) W 277 0 min 0,000 mm 0,0 UV-I 0 W/m 2,7 C 3,2 C 14,5 km/h (3 Bft) 100,00 %
18.04.2017 02:38 4,4 C 89 % 1015,0 hPa 0,0 l/m 10,6 km/h (2 Bft) W 277 0 min 0,000 mm 0,0 UV-I 0 W/m 2,7 C 1,0 C 19,3 km/h (3 Bft) 100,00 %
18.04.2017 02:40 4,4 C 89 % 1014,9 hPa 0,0 l/m 7,2 km/h (2 Bft) W 261 0 min 0,000 mm 0,0 UV-I 0 W/m 2,7 C 3,7 C 11,3 km/h (2 Bft) 100,00 %
18.04.2017 02:42 4,4 C 90 % 1015,0 hPa 0,0 l/m 8,9 km/h (2 Bft) W-SW 257 0 min 0,000 mm 0,0 UV-I 0 W/m 2,9 C 2,2 C 12,9 km/h (3 Bft) 100,00 %
18.04.2017 02:44 4,3 C 90 % 1014,9 hPa 0,0 l/m 8,9 km/h (2 Bft) W 269 0 min 0,000 mm 0,0 UV-I 0 W/m 2,8 C 2,1 C 14,5 km/h (3 Bft) 97,73 %
18.04.2017 02:46 4,3 C 90 % 1014,9 hPa 0,0 l/m 10,4 km/h (2 Bft) W-SW 248 0 min 0,000 mm 0,0 UV-I 0 W/m 2,8 C 1,0 C 16,1 km/h (3 Bft) 100,00 %
18.04.2017 02:48 4,3 C 90 % 1014,9 hPa 0,0 l/m 8,3 km/h (2 Bft) W-SW 244 0 min 0,000 mm 0,0 UV-I 0 W/m 2,8 C 2,6 C 12,9 km/h (3 Bft) 98,00 %
18.04.2017 02:50 4,3 C 90 % 1014,9 hPa 0,0 l/m 11,9 km/h (2 Bft) W 264 0 min 0,000 mm 0,0 UV-I 0 W/m 2,8 C 0,0 C 19,3 km/h (3 Bft) 100,00 %
18.04.2017 02:52 4,3 C 90 % 1014,9 hPa 0,0 l/m 10,7 km/h (2 Bft) W 259 0 min 0,000 mm 0,0 UV-I 0 W/m 2,8 C 0,8 C 16,1 km/h (3 Bft) 100,00 %
18.04.2017 02:54 4,3 C 90 % 1014,8 hPa 0,0 l/m 9,7 km/h (2 Bft) W 277 0 min 0,000 mm 0,0 UV-I 0 W/m 2,8 C 1,5 C 17,7 km/h (3 Bft) 100,00 %
18.04.2017 02:56 4,3 C 89 % 1014,9 hPa 0,0 l/m 10,4 km/h (2 Bft) W 271 0 min 0,000 mm 0,0 UV-I 0 W/m 2,7 C 1,0 C 16,1 km/h (3 Bft) 100,00 %
18.04.2017 02:58 4,4 C 90 % 1014,8 hPa 0,0 l/m 7,6 km/h (2 Bft) W-SW 242 0 min 0,000 mm 0,0 UV-I 0 W/m 2,9 C 3,3 C 12,9 km/h (3 Bft) 100,00 %
18.04.2017 03:00 4,4 C 90 % 1014,8 hPa 0,0 l/m 11,2 km/h (2 Bft) W-SW 238 0 min 0,000 mm 0,0 UV-I 0 W/m 2,9 C 0,6 C 16,1 km/h (3 Bft) 98,00 %
18.04.2017 03:02 4,4 C 90 % 1014,8 hPa 0,0 l/m 12,0 km/h (2 Bft) W 277 0 min 0,000 mm 0,0 UV-I 0 W/m 2,9 C 0,1 C 17,7 km/h (3 Bft) 100,00 %
18.04.2017 03:04 4,3 C 90 % 1014,8 hPa 0,0 l/m 9,5 km/h (2 Bft) W-SW 254 0 min 0,000 mm 0,0 UV-I 0 W/m 2,8 C 1,7 C 12,9 km/h (3 Bft) 100,00 %
18.04.2017 03:06 4,3 C 90 % 1014,8 hPa 0,0 l/m 10,2 km/h (2 Bft) W 260 0 min 0,000 mm 0,0 UV-I 0 W/m 2,8 C 1,2 C 12,9 km/h (3 Bft) 100,00 %
18.04.2017 03:08 4,3 C 90 % 1014,8 hPa 0,0 l/m 8,9 km/h (2 Bft) W-SW 251 0 min 0,000 mm 0,0 UV-I 0 W/m 2,8 C 2,1 C 14,5 km/h (3 Bft) 97,56 %
18.04.2017 03:10 4,3 C 90 % 1014,8 hPa 0,0 l/m 8,7 km/h (2 Bft) W 263 0 min 0,000 mm 0,0 UV-I 0 W/m 2,8 C 2,3 C 12,9 km/h (3 Bft) 100,00 %
18.04.2017 03:12 4,3 C 90 % 1014,8 hPa 0,0 l/m 9,3 km/h (2 Bft) W-SW 250 0 min 0,000 mm 0,0 UV-I 0 W/m 2,8 C 1,8 C 17,7 km/h (3 Bft) 100,00 %
18.04.2017 03:14 4,3 C 90 % 1014,7 hPa 0,0 l/m 13,9 km/h (3 Bft) W-SW 252 0 min 0,000 mm 0,0 UV-I 0 W/m 2,8 C -1,2 C 17,7 km/h (3 Bft) 100,00 %
18.04.2017 03:16 4,3 C 90 % 1014,7 hPa 0,0 l/m 13,4 km/h (3 Bft) W 272 0 min 0,000 mm 0,0 UV-I 0 W/m 2,8 C -0,9 C 20,9 km/h (4 Bft) 100,00 %
18.04.2017 03:18 4,3 C 90 % 1014,7 hPa 0,0 l/m 16,1 km/h (3 Bft) W 271 0 min 0,000 mm 0,0 UV-I 0 W/m 2,8 C -2,3 C 24,1 km/h (4 Bft) 96,36 %
18.04.2017 03:20 4,3 C 90 % 1014,7 hPa 0,0 l/m 11,9 km/h (2 Bft) W 259 0 min 0,000 mm 0,0 UV-I 0 W/m 2,8 C 0,0 C 17,7 km/h (3 Bft) 97,62 %
18.04.2017 03:22 4,3 C 90 % 1014,7 hPa 0,0 l/m 16,9 km/h (3 Bft) SW 232 0 min 0,000 mm 0,0 UV-I 0 W/m 2,8 C -2,7 C 24,1 km/h (4 Bft) 96,15 %
18.04.2017 03:24 4,3 C 90 % 1014,7 hPa 0,0 l/m 15,6 km/h (3 Bft) W-SW 257 0 min 0,000 mm 0,0 UV-I 0 W/m 2,8 C -2,1 C 25,7 km/h (4 Bft) 98,53 %
18.04.2017 03:26 4,3 C 90 % 1014,7 hPa 0,0 l/m 12,1 km/h (2 Bft) W-SW 249 0 min 0,000 mm 0,0 UV-I 0 W/m 2,8 C -0,1 C 17,7 km/h (3 Bft) 95,12 %
18.04.2017 03:28 4,3 C 90 % 1014,7 hPa 0,0 l/m 13,9 km/h (3 Bft) W-SW 254 0 min 0,000 mm 0,0 UV-I 0 W/m 2,8 C -1,2 C 25,7 km/h (4 Bft) 96,00 %
18.04.2017 03:30 4,3 C 90 % 1014,7 hPa 0,0 l/m 17,3 km/h (3 Bft) W-SW 254 0 min 0,000 mm 0,0 UV-I 0 W/m 2,8 C -2,9 C 24,1 km/h (4 Bft) 97,87 %
18.04.2017 03:32 4,3 C 90 % 1014,7 hPa 0,0 l/m 11,0 km/h (2 Bft) NW 313 0 min 0,000 mm 0,0 UV-I 0 W/m 2,8 C 0,6 C 14,5 km/h (3 Bft) 95,12 %
18.04.2017 03:34 4,3 C 90 % 1014,7 hPa 0,0 l/m 18,1 km/h (3 Bft) W 261 0 min 0,000 mm 0,0 UV-I 0 W/m 2,8 C -3,3 C 35,4 km/h (5 Bft) 94,64 %
18.04.2017 03:36 4,2 C 90 % 1014,7 hPa 0,0 l/m 14,1 km/h (3 Bft) W-SW 238 0 min 0,000 mm 0,0 UV-I 0 W/m 2,7 C -1,4 C 24,1 km/h (4 Bft) 95,45 %
18.04.2017 03:38 4,2 C 90 % 1014,7 hPa 0,0 l/m 13,1 km/h (3 Bft) W-SW 241 0 min 0,000 mm 0,0 UV-I 0 W/m 2,7 C -0,8 C 17,7 km/h (3 Bft) 95,12 %
18.04.2017 03:40 4,2 C 90 % 1014,7 hPa 0,0 l/m 19,0 km/h (3 Bft) W-SW 250 0 min 0,000 mm 0,0 UV-I 0 W/m 2,7 C -3,8 C 27,4 km/h (4 Bft) 96,23 %
18.04.2017 03:42 4,1 C 89 % 1014,6 hPa 0,0 l/m 15,6 km/h (3 Bft) W 271 0 min 0,000 mm 0,0 UV-I 0 W/m 2,5 C -2,3 C 25,7 km/h (4 Bft) 95,12 %
18.04.2017 03:44 4,1 C 89 % 1014,7 hPa 0,0 l/m 15,8 km/h (3 Bft) SW 230 0 min 0,000 mm 0,0 UV-I 0 W/m 2,5 C -2,4 C 29,0 km/h (5 Bft) 96,23 %
18.04.2017 03:46 4,1 C 90 % 1014,7 hPa 0,0 l/m 13,4 km/h (3 Bft) W-SW 250 0 min 0,000 mm 0,0 UV-I 0 W/m 2,6 C -1,1 C 20,9 km/h (4 Bft) 94,74 %
18.04.2017 03:48 4,1 C 90 % 1014,7 hPa 0,0 l/m 11,5 km/h (2 Bft) W-SW 239 0 min 0,000 mm 0,0 UV-I 0 W/m 2,6 C 0,0 C 19,3 km/h (3 Bft) 96,00 %
18.04.2017 03:50 4,1 C 90 % 1014,7 hPa 0,0 l/m 12,8 km/h (3 Bft) W-SW 253 0 min 0,000 mm 0,0 UV-I 0 W/m 2,6 C -0,8 C 25,7 km/h (4 Bft) 92,00 %
18.04.2017 03:52 4,0 C 90 % 1014,7 hPa 0,0 l/m 8,7 km/h (2 Bft) W-SW 240 0 min 0,000 mm 0,0 UV-I 0 W/m 2,5 C 2,0 C 16,1 km/h (3 Bft) 96,00 %
18.04.2017 03:54 4,0 C 90 % 1014,7 hPa 0,0 l/m 9,1 km/h (2 Bft) SW 227 0 min 0,000 mm 0,0 UV-I 0 W/m 2,5 C 1,6 C 17,7 km/h (3 Bft) 97,62 %
18.04.2017 03:56 4,0 C 90 % 1014,7 hPa 0,0 l/m 8,2 km/h (2 Bft) W-NW 286 0 min 0,000 mm 0,0 UV-I 0 W/m 2,5 C 2,4 C 12,9 km/h (3 Bft) 98,08 %
18.04.2017 03:58 4,0 C 90 % 1014,7 hPa 0,0 l/m 4,0 km/h (1 Bft) N-NW 335 0 min 0,000 mm 0,0 UV-I 0 W/m 2,5 C 4,0 C 11,3 km/h (2 Bft) 97,44 %
18.04.2017 04:00 3,9 C 91 % 1014,7 hPa 0,0 l/m 5,0 km/h (1 Bft) NW 313 0 min 0,000 mm 0,0 UV-I 0 W/m 2,6 C 3,9 C 11,3 km/h (2 Bft) 98,00 %
18.04.2017 04:02 3,9 C 91 % 1014,7 hPa 0,0 l/m 9,8 km/h (2 Bft) W-SW 251 0 min 0,000 mm 0,0 UV-I 0 W/m 2,6 C 1,0 C 17,7 km/h (3 Bft) 100,00 %
18.04.2017 04:04 3,9 C 91 % 1014,7 hPa 0,0 l/m 6,9 km/h (2 Bft) W-NW 293 0 min 0,000 mm 0,0 UV-I 0 W/m 2,6 C 3,4 C 19,3 km/h (3 Bft) 96,00 %
18.04.2017 04:06 3,8 C 91 % 1014,8 hPa 0,0 l/m 4,2 km/h (1 Bft) W-NW 284 0 min 0,000 mm 0,0 UV-I 0 W/m 2,5 C 3,8 C 8,0 km/h (2 Bft) 94,74 %
18.04.2017 04:08 3,8 C 91 % 1014,8 hPa 0,0 l/m 3,3 km/h (1 Bft) W 259 0 min 0,000 mm 0,0 UV-I 0 W/m 2,5 C 3,8 C 6,4 km/h (2 Bft) 95,74 %
18.04.2017 04:10 3,7 C 91 % 1014,8 hPa 0,0 l/m 5,3 km/h (1 Bft) W-NW 286 0 min 0,000 mm 0,0 UV-I 0 W/m 2,4 C 3,7 C 9,7 km/h (2 Bft) 96,43 %
18.04.2017 04:12 3,7 C 91 % 1014,9 hPa 0,0 l/m 7,7 km/h (2 Bft) W-SW 254 0 min 0,000 mm 0,0 UV-I 0 W/m 2,4 C 2,5 C 14,5 km/h (3 Bft) 97,37 %
18.04.2017 04:14 3,6 C 91 % 1014,8 hPa 0,0 l/m 5,9 km/h (2 Bft) W-NW 292 0 min 0,000 mm 0,0 UV-I 0 W/m 2,3 C 3,6 C 11,3 km/h (2 Bft) 96,00 %
18.04.2017 04:16 3,6 C 91 % 1014,8 hPa 0,0 l/m 6,7 km/h (2 Bft) W 269 0 min 0,000 mm 0,0 UV-I 0 W/m 2,3 C 3,3 C 12,9 km/h (3 Bft) 95,74 %
18.04.2017 04:18 3,6 C 91 % 1014,8 hPa 0,0 l/m 6,6 km/h (2 Bft) W-SW 254 0 min 0,000 mm 0,0 UV-I 0 W/m 2,3 C 3,4 C 11,3 km/h (2 Bft) 97,37 %
18.04.2017 04:20 3,6 C 91 % 1014,8 hPa 0,0 l/m 5,3 km/h (1 Bft) W 275 0 min 0,000 mm 0,0 UV-I 0 W/m 2,3 C 3,6 C 11,3 km/h (2 Bft) 96,23 %
18.04.2017 04:22 3,6 C 91 % 1014,8 hPa 0,0 l/m 8,0 km/h (2 Bft) W-SW 253 0 min 0,000 mm 0,0 UV-I 0 W/m 2,3 C 2,1 C 17,7 km/h (3 Bft) 98,11 %
18.04.2017 04:24 3,5 C 91 % 1014,8 hPa 0,0 l/m 6,4 km/h (2 Bft) SW 236 0 min 0,000 mm 0,0 UV-I 0 W/m 2,2 C 3,5 C 11,3 km/h (2 Bft) 97,73 %
18.04.2017 04:26 3,5 C 91 % 1014,8 hPa 0,0 l/m 8,6 km/h (2 Bft) W-SW 256 0 min 0,000 mm 0,0 UV-I 0 W/m 2,2 C 1,5 C 12,9 km/h (3 Bft) 96,00 %
18.04.2017 04:28 3,5 C 91 % 1014,8 hPa 0,0 l/m 9,3 km/h (2 Bft) W 259 0 min 0,000 mm 0,0 UV-I 0 W/m 2,2 C 1,0 C 17,7 km/h (3 Bft) 97,56 %
18.04.2017 04:30 3,5 C 91 % 1014,8 hPa 0,0 l/m 6,1 km/h (2 Bft) W 281 0 min 0,000 mm 0,0 UV-I 0 W/m 2,2 C 3,5 C 11,3 km/h (2 Bft) 97,87 %
18.04.2017 04:32 3,5 C 91 % 1014,7 hPa 0,0 l/m 7,7 km/h (2 Bft) SW 228 0 min 0,000 mm 0,0 UV-I 0 W/m 2,2 C 2,3 C 12,9 km/h (3 Bft) 97,92 %
18.04.2017 04:34 3,4 C 91 % 1014,7 hPa 0,0 l/m 7,5 km/h (2 Bft) W 261 0 min 0,000 mm 0,0 UV-I 0 W/m 2,1 C 2,4 C 11,3 km/h (2 Bft) 100,00 %
18.04.2017 04:36 3,4 C 91 % 1014,7 hPa 0,0 l/m 9,2 km/h (2 Bft) W 263 0 min 0,000 mm 0,0 UV-I 0 W/m 2,1 C 0,9 C 17,7 km/h (3 Bft) 96,00 %
18.04.2017 04:38 3,4 C 91 % 1014,8 hPa 0,0 l/m 8,6 km/h (2 Bft) W-SW 258 0 min 0,000 mm 0,0 UV-I 0 W/m 2,1 C 1,4 C 16,1 km/h (3 Bft) 100,00 %
18.04.2017 04:40 3,4 C 91 % 1014,7 hPa 0,0 l/m 9,0 km/h (2 Bft) W 269 0 min 0,000 mm 0,0 UV-I 0 W/m 2,1 C 1,1 C 17,7 km/h (3 Bft) 100,00 %
18.04.2017 04:42 3,4 C 91 % 1014,7 hPa 0,0 l/m 5,5 km/h (1 Bft) W-SW 256 0 min 0,000 mm 0,0 UV-I 0 W/m 2,1 C 3,4 C 9,7 km/h (2 Bft) 100,00 %
18.04.2017 04:44 3,4 C 91 % 1014,6 hPa 0,0 l/m 7,7 km/h (2 Bft) W-NW 289 0 min 0,000 mm 0,0 UV-I 0 W/m 2,1 C 2,2 C 14,5 km/h (3 Bft) 97,87 %
18.04.2017 04:46 3,3 C 91 % 1014,6 hPa 0,0 l/m 8,0 km/h (2 Bft) W 269 0 min 0,000 mm 0,0 UV-I 0 W/m 2,0 C 1,8 C 12,9 km/h (3 Bft) 100,00 %
18.04.2017 04:48 3,3 C 91 % 1014,7 hPa 0,0 l/m 5,6 km/h (1 Bft) W 279 0 min 0,000 mm 0,0 UV-I 0 W/m 2,0 C 3,3 C 9,7 km/h (2 Bft) 100,00 %
18.04.2017 04:50 3,3 C 91 % 1014,6 hPa 0,0 l/m 4,6 km/h (1 Bft) W-SW 254 0 min 0,000 mm 0,0 UV-I 0 W/m 2,0 C 3,3 C 9,7 km/h (2 Bft) 98,00 %
18.04.2017 04:52 3,3 C 91 % 1014,7 hPa 0,0 l/m 12,4 km/h (3 Bft) W-NW 292 0 min 0,000 mm 0,0 UV-I 0 W/m 2,0 C -1,5 C 19,3 km/h (3 Bft) 100,00 %
18.04.2017 04:54 3,3 C 91 % 1014,7 hPa 0,0 l/m 7,7 km/h (2 Bft) W 278 0 min 0,000 mm 0,0 UV-I 0 W/m 2,0 C 2,1 C 11,3 km/h (2 Bft) 100,00 %
18.04.2017 04:56 3,3 C 91 % 1014,7 hPa 0,0 l/m 7,1 km/h (2 Bft) W 267 0 min 0,000 mm 0,0 UV-I 0 W/m 2,0 C 2,6 C 12,9 km/h (3 Bft) 100,00 %
18.04.2017 04:58 3,3 C 91 % 1014,7 hPa 0,0 l/m 7,8 km/h (2 Bft) W-NW 284 0 min 0,000 mm 0,0 UV-I 0 W/m 2,0 C 2,0 C 16,1 km/h (3 Bft) 97,87 %
18.04.2017 05:00 3,3 C 91 % 1014,7 hPa 0,0 l/m 6,8 km/h (2 Bft) W 274 0 min 0,000 mm 0,0 UV-I 0 W/m 2,0 C 2,9 C 16,1 km/h (3 Bft) 97,56 %
18.04.2017 05:02 3,2 C 90 % 1014,7 hPa 0,0 l/m 6,6 km/h (2 Bft) W-SW 248 0 min 0,000 mm 0,0 UV-I 0 W/m 1,7 C 3,0 C 12,9 km/h (3 Bft) 100,00 %
18.04.2017 05:04 3,2 C 90 % 1014,7 hPa 0,0 l/m 9,7 km/h (2 Bft) W 263 0 min 0,000 mm 0,0 UV-I 0 W/m 1,7 C 0,3 C 16,1 km/h (3 Bft) 100,00 %
18.04.2017 05:06 3,2 C 90 % 1014,8 hPa 0,0 l/m 10,1 km/h (2 Bft) W-NW 285 0 min 0,000 mm 0,0 UV-I 0 W/m 1,7 C 0,0 C 14,5 km/h (3 Bft) 97,73 %
18.04.2017 05:08 3,2 C 90 % 1014,8 hPa 0,0 l/m 11,6 km/h (2 Bft) W-NW 303 0 min 0,000 mm 0,0 UV-I 0 W/m 1,7 C -1,1 C 16,1 km/h (3 Bft) 100,00 %
18.04.2017 05:10 3,2 C 90 % 1014,8 hPa 0,0 l/m 7,5 km/h (2 Bft) W-NW 293 0 min 0,000 mm 0,0 UV-I 0 W/m 1,7 C 2,2 C 16,1 km/h (3 Bft) 97,73 %
18.04.2017 05:12 3,2 C 90 % 1014,8 hPa 0,0 l/m 6,4 km/h (2 Bft) W 270 0 min 0,000 mm 0,0 UV-I 0 W/m 1,7 C 3,2 C 11,3 km/h (2 Bft) 98,00 %
18.04.2017 05:14 3,2 C 91 % 1014,8 hPa 0,0 l/m 8,1 km/h (2 Bft) W 271 0 min 0,000 mm 0,0 UV-I 0 W/m 1,9 C 1,6 C 12,9 km/h (3 Bft) 100,00 %
18.04.2017 05:16 3,2 C 90 % 1014,8 hPa 0,0 l/m 5,5 km/h (1 Bft) W 277 0 min 0,000 mm 0,0 UV-I 0 W/m 1,7 C 3,2 C 8,0 km/h (2 Bft) 100,00 %
18.04.2017 05:18 3,2 C 91 % 1014,8 hPa 0,0 l/m 4,1 km/h (1 Bft) W 274 0 min 0,000 mm 0,0 UV-I 0 W/m 1,9 C 3,2 C 4,8 km/h (1 Bft) 97,14 %
18.04.2017 05:20 3,2 C 91 % 1014,8 hPa 0,0 l/m 4,7 km/h (1 Bft) W-SW 258 0 min 0,000 mm 0,0 UV-I 0 W/m 1,9 C 3,2 C 9,7 km/h (2 Bft) 100,00 %
18.04.2017 05:22 3,2 C 91 % 1014,8 hPa 0,0 l/m 8,0 km/h (2 Bft) W 279 0 min 0,000 mm 0,0 UV-I 0 W/m 1,9 C 1,7 C 16,1 km/h (3 Bft) 98,11 %
18.04.2017 05:24 3,2 C 91 % 1014,8 hPa 0,0 l/m 3,6 km/h (1 Bft) W-SW 258 0 min 0,000 mm 0,0 UV-I 0 W/m 1,9 C 3,2 C 9,7 km/h (2 Bft) 98,21 %
18.04.2017 05:26 3,2 C 91 % 1014,8 hPa 0,0 l/m 8,3 km/h (2 Bft) W 263 0 min 0,000 mm 0,0 UV-I 0 W/m 1,9 C 1,5 C 11,3 km/h (2 Bft) 98,00 %
18.04.2017 05:28 3,2 C 91 % 1014,8 hPa 0,0 l/m 6,1 km/h (2 Bft) W 261 0 min 0,000 mm 0,0 UV-I 0 W/m 1,9 C 3,2 C 9,7 km/h (2 Bft) 94,74 %
18.04.2017 05:30 3,2 C 91 % 1014,8 hPa 0,0 l/m 6,5 km/h (2 Bft) W 265 0 min 0,000 mm 0,0 UV-I 0 W/m 1,9 C 3,1 C 9,7 km/h (2 Bft) 98,00 %
18.04.2017 05:32 3,2 C 91 % 1014,8 hPa 0,0 l/m 8,6 km/h (2 Bft) S-SW 209 0 min 0,000 mm 0,0 UV-I 0 W/m 1,9 C 1,2 C 17,7 km/h (3 Bft) 96,23 %
18.04.2017 05:34 3,2 C 91 % 1014,8 hPa 0,0 l/m 7,1 km/h (2 Bft) W-SW 252 0 min 0,000 mm 0,0 UV-I 0 W/m 1,9 C 2,5 C 12,9 km/h (3 Bft) 95,12 %
18.04.2017 05:36 3,2 C 91 % 1014,8 hPa 0,0 l/m 7,4 km/h (2 Bft) W-SW 254 0 min 0,000 mm 0,0 UV-I 0 W/m 1,9 C 2,3 C 12,9 km/h (3 Bft) 98,11 %
18.04.2017 05:38 3,2 C 91 % 1014,9 hPa 0,0 l/m 9,9 km/h (2 Bft) W-SW 254 0 min 0,000 mm 0,0 UV-I 0 W/m 1,9 C 0,2 C 12,9 km/h (3 Bft) 97,56 %
18.04.2017 05:40 3,2 C 91 % 1014,9 hPa 0,0 l/m 8,8 km/h (2 Bft) W-SW 246 0 min 0,000 mm 0,0 UV-I 0 W/m 1,9 C 1,0 C 19,3 km/h (3 Bft) 96,00 %
18.04.2017 05:42 3,2 C 91 % 1014,9 hPa 0,0 l/m 9,7 km/h (2 Bft) W 263 0 min 0,000 mm 0,0 UV-I 0 W/m 1,9 C 0,3 C 16,1 km/h (3 Bft) 98,00 %
18.04.2017 05:44 3,2 C 91 % 1014,9 hPa 0,0 l/m 7,0 km/h (2 Bft) W 269 0 min 0,000 mm 0,0 UV-I 0 W/m 1,9 C 2,6 C 12,9 km/h (3 Bft) 94,74 %
18.04.2017 05:46 3,2 C 91 % 1014,9 hPa 0,0 l/m 10,0 km/h (2 Bft) W-SW 257 0 min 0,000 mm 0,0 UV-I 0 W/m 1,9 C 0,1 C 14,5 km/h (3 Bft) 98,00 %
18.04.2017 05:48 3,2 C 91 % 1014,9 hPa 0,0 l/m 10,6 km/h (2 Bft) W 267 0 min 0,000 mm 0,0 UV-I 0 W/m 1,9 C -0,4 C 17,7 km/h (3 Bft) 97,56 %
18.04.2017 05:50 3,2 C 91 % 1015,0 hPa 0,0 l/m 10,1 km/h (2 Bft) W-SW 246 0 min 0,000 mm 0,0 UV-I 0 W/m 1,9 C 0,0 C 17,7 km/h (3 Bft) 98,11 %
18.04.2017 05:52 3,2 C 91 % 1014,9 hPa 0,0 l/m 9,1 km/h (2 Bft) W 261 0 min 0,000 mm 0,0 UV-I 0 W/m 1,9 C 0,8 C 19,3 km/h (3 Bft) 94,87 %
18.04.2017 05:54 3,3 C 91 % 1015,0 hPa 0,0 l/m 8,0 km/h (2 Bft) W 269 0 min 0,000 mm 0,0 UV-I 0 W/m 2,0 C 1,8 C 14,5 km/h (3 Bft) 96,23 %
18.04.2017 05:56 3,3 C 91 % 1015,0 hPa 0,0 l/m 5,8 km/h (2 Bft) W 279 0 min 0,000 mm 0,0 UV-I 0 W/m 2,0 C 3,3 C 11,3 km/h (2 Bft) 98,00 %
18.04.2017 05:58 3,3 C 91 % 1014,9 hPa 0,0 l/m 8,1 km/h (2 Bft) W 271 0 min 0,000 mm 0,0 UV-I 0 W/m 2,0 C 1,7 C 11,3 km/h (2 Bft) 95,12 %
18.04.2017 06:00 3,3 C 91 % 1014,9 hPa 0,0 l/m 6,2 km/h (2 Bft) W-SW 237 0 min 0,000 mm 0,0 UV-I 0 W/m 2,0 C 3,3 C 11,3 km/h (2 Bft) 100,00 %
18.04.2017 06:02 3,3 C 91 % 1014,9 hPa 0,0 l/m 6,6 km/h (2 Bft) W-SW 247 0 min 0,000 mm 0,0 UV-I 0 W/m 2,0 C 3,1 C 11,3 km/h (2 Bft) 100,00 %
18.04.2017 06:04 3,3 C 91 % 1015,0 hPa 0,0 l/m 5,2 km/h (1 Bft) W 276 0 min 0,000 mm 0,0 UV-I 0 W/m 2,0 C 3,3 C 8,0 km/h (2 Bft) 100,00 %
18.04.2017 06:06 3,3 C 91 % 1015,0 hPa 0,0 l/m 6,2 km/h (2 Bft) W-SW 257 0 min 0,000 mm 0,0 UV-I 0 W/m 2,0 C 3,3 C 11,3 km/h (2 Bft) 100,00 %
18.04.2017 06:08 3,3 C 91 % 1015,0 hPa 0,0 l/m 7,0 km/h (2 Bft) W 265 0 min 0,000 mm 0,0 UV-I 0 W/m 2,0 C 2,7 C 11,3 km/h (2 Bft) 97,56 %
18.04.2017 06:10 3,3 C 91 % 1015,0 hPa 0,0 l/m 4,1 km/h (1 Bft) W-SW 245 0 min 0,000 mm 0,0 UV-I 0 W/m 2,0 C 3,3 C 6,4 km/h (2 Bft) 100,00 %
18.04.2017 06:12 3,3 C 91 % 1015,0 hPa 0,0 l/m 6,2 km/h (2 Bft) SW 231 0 min 0,000 mm 0,0 UV-I 3 W/m 2,0 C 3,3 C 11,3 km/h (2 Bft) 98,21 %
18.04.2017 06:14 3,3 C 91 % 1015,0 hPa 0,0 l/m 5,3 km/h (1 Bft) W-SW 254 0 min 0,000 mm 0,0 UV-I 5 W/m 2,0 C 3,3 C 8,0 km/h (2 Bft) 100,00 %
18.04.2017 06:16 3,3 C 92 % 1015,1 hPa 0,0 l/m 6,6 km/h (2 Bft) W 267 0 min 0,000 mm 0,0 UV-I 4 W/m 2,1 C 3,1 C 11,3 km/h (2 Bft) 100,00 %
18.04.2017 06:18 3,3 C 92 % 1015,1 hPa 0,0 l/m 5,5 km/h (1 Bft) W 277 0 min 0,000 mm 0,0 UV-I 0 W/m 2,1 C 3,3 C 9,7 km/h (2 Bft) 98,00 %
18.04.2017 06:20 3,3 C 92 % 1015,1 hPa 0,0 l/m 3,8 km/h (1 Bft) W-SW 243 0 min 0,000 mm 0,0 UV-I 0 W/m 2,1 C 3,3 C 6,4 km/h (2 Bft) 96,23 %
18.04.2017 06:22 3,3 C 92 % 1015,1 hPa 0,0 l/m 6,1 km/h (2 Bft) W 261 0 min 0,000 mm 0,0 UV-I 1 W/m 2,1 C 3,3 C 8,0 km/h (2 Bft) 96,30 %
18.04.2017 06:24 3,3 C 92 % 1015,1 hPa 0,0 l/m 5,2 km/h (1 Bft) W-SW 258 0 min 0,000 mm 0,0 UV-I 5 W/m 2,1 C 3,3 C 9,7 km/h (2 Bft) 100,00 %
18.04.2017 06:26 3,3 C 92 % 1015,1 hPa 0,0 l/m 4,5 km/h (1 Bft) W 263 0 min 0,000 mm 0,0 UV-I 5 W/m 2,1 C 3,3 C 6,4 km/h (2 Bft) 95,83 %
18.04.2017 06:28 3,3 C 92 % 1015,1 hPa 0,0 l/m 4,8 km/h (1 Bft) W 261 0 min 0,000 mm 0,0 UV-I 5 W/m 2,1 C 3,3 C 6,4 km/h (2 Bft) 100,00 %
18.04.2017 06:30 3,3 C 92 % 1015,1 hPa 0,0 l/m 5,3 km/h (1 Bft) W-SW 255 0 min 0,000 mm 0,0 UV-I 5 W/m 2,1 C 3,3 C 12,9 km/h (3 Bft) 100,00 %
18.04.2017 06:32 3,3 C 92 % 1015,1 hPa 0,0 l/m 7,3 km/h (2 Bft) W 262 0 min 0,000 mm 0,0 UV-I 5 W/m 2,1 C 2,5 C 14,5 km/h (3 Bft) 98,00 %
18.04.2017 06:34 3,3 C 92 % 1015,1 hPa 0,0 l/m 4,1 km/h (1 Bft) W-SW 250 0 min 0,000 mm 0,0 UV-I 5 W/m 2,1 C 3,3 C 6,4 km/h (2 Bft) 100,00 %
18.04.2017 06:36 3,3 C 92 % 1015,1 hPa 0,0 l/m 3,3 km/h (1 Bft) W-SW 256 0 min 0,000 mm 0,0 UV-I 7 W/m 2,1 C 3,3 C 4,8 km/h (1 Bft) 100,00 %
18.04.2017 06:38 3,3 C 92 % 1015,1 hPa 0,0 l/m 3,9 km/h (1 Bft) W-SW 251 0 min 0,000 mm 0,0 UV-I 8 W/m 2,1 C 3,3 C 6,4 km/h (2 Bft) 98,00 %
18.04.2017 06:40 3,3 C 92 % 1015,1 hPa 0,0 l/m 4,8 km/h (1 Bft) W-SW 251 0 min 0,000 mm 0,0 UV-I 9 W/m 2,1 C 3,3 C 6,4 km/h (2 Bft) 100,00 %
18.04.2017 06:42 3,3 C 92 % 1015,1 hPa 0,0 l/m 4,2 km/h (1 Bft) W-SW 252 0 min 0,000 mm 0,0 UV-I 10 W/m 2,1 C 3,3 C 6,4 km/h (2 Bft) 100,00 %
18.04.2017 06:44 3,3 C 92 % 1015,1 hPa 0,0 l/m 2,3 km/h (1 Bft) W-SW 254 0 min 0,000 mm 0,0 UV-I 11 W/m 2,1 C 3,3 C 4,8 km/h (1 Bft) 100,00 %
18.04.2017 06:46 3,3 C 92 % 1015,2 hPa 0,0 l/m 0,6 km/h (0 Bft) W-SW 254 0 min 0,000 mm 0,0 UV-I 12 W/m 2,1 C 3,3 C 3,2 km/h (1 Bft) 100,00 %
18.04.2017 06:48 3,3 C 92 % 1015,1 hPa 0,0 l/m 2,6 km/h (1 Bft) W-SW 253 0 min 0,000 mm 0,0 UV-I 14 W/m 2,1 C 3,3 C 6,4 km/h (2 Bft) 97,06 %
18.04.2017 06:50 3,3 C 92 % 1015,1 hPa 0,0 l/m 2,8 km/h (1 Bft) NW 314 0 min 0,000 mm 0,0 UV-I 15 W/m 2,1 C 3,3 C 6,4 km/h (2 Bft) 100,00 %
18.04.2017 06:52 3,3 C 92 % 1015,2 hPa 0,0 l/m 0,7 km/h (0 Bft) NW 314 0 min 0,000 mm 0,0 UV-I 17 W/m 2,1 C 3,3 C 3,2 km/h (1 Bft) 94,44 %
18.04.2017 06:54 3,3 C 92 % 1015,2 hPa 0,0 l/m 1,0 km/h (0 Bft) NW 315 0 min 0,000 mm 0,0 UV-I 19 W/m 2,1 C 3,3 C 3,2 km/h (1 Bft) 96,00 %
18.04.2017 06:56 3,4 C 92 % 1015,3 hPa 0,0 l/m 2,9 km/h (1 Bft) W-SW 250 0 min 0,000 mm 0,0 UV-I 24 W/m 2,2 C 3,4 C 8,0 km/h (2 Bft) 92,00 %
18.04.2017 06:58 3,4 C 92 % 1015,2 hPa 0,0 l/m 3,0 km/h (1 Bft) W 261 0 min 0,000 mm 0,0 UV-I 29 W/m 2,2 C 3,4 C 6,4 km/h (2 Bft) 97,14 %
18.04.2017 07:00 3,4 C 92 % 1015,3 hPa 0,0 l/m 2,8 km/h (1 Bft) W 264 0 min 0,000 mm 0,0 UV-I 36 W/m 2,2 C 3,4 C 4,8 km/h (1 Bft) 96,43 %
18.04.2017 07:02 3,4 C 92 % 1015,3 hPa 0,0 l/m 4,5 km/h (1 Bft) W 263 0 min 0,000 mm 0,0 UV-I 39 W/m 2,2 C 3,4 C 8,0 km/h (2 Bft) 98,00 %
18.04.2017 07:04 3,4 C 92 % 1015,3 hPa 0,0 l/m 4,3 km/h (1 Bft) W-NW 284 0 min 0,000 mm 0,0 UV-I 38 W/m 2,2 C 3,4 C 8,0 km/h (2 Bft) 97,37 %
18.04.2017 07:06 3,4 C 92 % 1015,2 hPa 0,0 l/m 0,7 km/h (0 Bft) W-NW 284 0 min 0,000 mm 0,0 UV-I 33 W/m 2,2 C 3,4 C 3,2 km/h (1 Bft) 100,00 %
18.04.2017 07:08 3,5 C 92 % 1015,2 hPa 0,0 l/m 1,9 km/h (1 Bft) W-NW 284 0 min 0,000 mm 0,0 UV-I 30 W/m 2,3 C 3,5 C 4,8 km/h (1 Bft) 100,00 %
18.04.2017 07:10 3,5 C 92 % 1015,3 hPa 0,0 l/m 3,8 km/h (1 Bft) W 275 0 min 0,000 mm 0,0 UV-I 27 W/m 2,3 C 3,5 C 6,4 km/h (2 Bft) 100,00 %
18.04.2017 07:12 3,5 C 92 % 1015,4 hPa 0,0 l/m 4,5 km/h (1 Bft) W 277 0 min 0,000 mm 0,0 UV-I 26 W/m 2,3 C 3,5 C 6,4 km/h (2 Bft) 100,00 %
18.04.2017 07:14 3,6 C 92 % 1015,3 hPa 0,0 l/m 3,2 km/h (1 Bft) W 268 0 min 0,000 mm 0,0 UV-I 35 W/m 2,4 C 3,6 C 6,4 km/h (2 Bft) 97,62 %
18.04.2017 07:16 3,6 C 92 % 1015,3 hPa 0,0 l/m 7,0 km/h (2 Bft) W 270 0 min 0,000 mm 0,0 UV-I 45 W/m 2,4 C 3,0 C 14,5 km/h (3 Bft) 97,56 %
18.04.2017 07:18 3,6 C 91 % 1015,3 hPa 0,0 l/m 3,5 km/h (1 Bft) W 275 0 min 0,000 mm 0,0 UV-I 44 W/m 2,3 C 3,6 C 4,8 km/h (1 Bft) 96,23 %
18.04.2017 07:20 3,6 C 91 % 1015,4 hPa 0,0 l/m 3,4 km/h (1 Bft) W 266 0 min 0,000 mm 0,0 UV-I 46 W/m 2,3 C 3,6 C 6,4 km/h (2 Bft) 93,18 %
18.04.2017 07:22 3,7 C 91 % 1015,4 hPa 0,0 l/m 4,4 km/h (1 Bft) W 281 0 min 0,000 mm 0,0 UV-I 48 W/m 2,4 C 3,7 C 6,4 km/h (2 Bft) 91,07 %
18.04.2017 07:24 3,7 C 91 % 1015,4 hPa 0,0 l/m 4,2 km/h (1 Bft) W-SW 238 0 min 0,000 mm 0,0 UV-I 42 W/m 2,4 C 3,7 C 8,0 km/h (2 Bft) 92,11 %
18.04.2017 07:26 3,7 C 91 % 1015,4 hPa 0,0 l/m 4,8 km/h (1 Bft) W-SW 250 0 min 0,000 mm 0,0 UV-I 34 W/m 2,4 C 3,7 C 8,0 km/h (2 Bft) 96,00 %
18.04.2017 07:28 3,6 C 91 % 1015,4 hPa 0,0 l/m 5,0 km/h (1 Bft) W-SW 243 0 min 0,000 mm 0,0 UV-I 25 W/m 2,3 C 3,6 C 8,0 km/h (2 Bft) 96,23 %
18.04.2017 07:30 3,6 C 91 % 1015,4 hPa 0,0 l/m 5,5 km/h (1 Bft) SW 236 0 min 0,000 mm 0,0 UV-I 24 W/m 2,3 C 3,6 C 8,0 km/h (2 Bft) 92,11 %
18.04.2017 07:32 3,4 C 91 % 1015,4 hPa 0,0 l/m 5,5 km/h (1 Bft) S 186 0 min 0,000 mm 0,0 UV-I 20 W/m 2,1 C 3,4 C 8,0 km/h (2 Bft) 90,57 %
18.04.2017 07:34 3,4 C 91 % 1015,4 hPa 0,0 l/m 5,6 km/h (1 Bft) W-SW 247 0 min 0,000 mm 0,0 UV-I 12 W/m 2,1 C 3,4 C 8,0 km/h (2 Bft) 92,68 %
18.04.2017 07:36 3,3 C 92 % 1015,5 hPa 0,0 l/m 3,6 km/h (1 Bft) W-NW 284 0 min 0,000 mm 0,0 UV-I 11 W/m 2,1 C 3,3 C 6,4 km/h (2 Bft) 92,68 %
18.04.2017 07:38 3,3 C 92 % 1015,5 hPa 0,0 l/m 4,4 km/h (1 Bft) W 281 0 min 0,000 mm 0,0 UV-I 10 W/m 2,1 C 3,3 C 8,0 km/h (2 Bft) 90,74 %
18.04.2017 07:40 3,3 C 92 % 1015,5 hPa 0,0 l/m 0,3 km/h (0 Bft) W 281 0 min 0,000 mm 0,0 UV-I 10 W/m 2,1 C 3,3 C 1,6 km/h (1 Bft) 91,49 %
18.04.2017 07:42 3,3 C 92 % 1015,4 hPa 0,0 l/m 1,2 km/h (1 Bft) W 273 0 min 0,000 mm 0,0 UV-I 9 W/m 2,1 C 3,3 C 4,8 km/h (1 Bft) 90,00 %
18.04.2017 07:44 3,2 C 92 % 1015,5 hPa 0,0 l/m 3,1 km/h (1 Bft) W-SW 248 0 min 0,000 mm 0,0 UV-I 9 W/m 2,0 C 3,2 C 9,7 km/h (2 Bft) 90,24 %
18.04.2017 07:46 3,1 C 92 % 1015,5 hPa 0,0 l/m 2,9 km/h (1 Bft) W-NW 302 0 min 0,000 mm 0,0 UV-I 12 W/m 1,9 C 3,1 C 6,4 km/h (2 Bft) 94,00 %
18.04.2017 07:48 3,1 C 92 % 1015,5 hPa 0,0 l/m 1,3 km/h (1 Bft) W-SW 258 0 min 0,000 mm 0,0 UV-I 19 W/m 1,9 C 3,1 C 4,8 km/h (1 Bft) 92,45 %
18.04.2017 07:50 3,1 C 93 % 1015,5 hPa 0,0 l/m 1,5 km/h (1 Bft) W 261 0 min 0,000 mm 0,0 UV-I 20 W/m 2,1 C 3,1 C 3,2 km/h (1 Bft) 86,36 %
18.04.2017 07:52 3,1 C 93 % 1015,5 hPa 0,0 l/m 2,5 km/h (1 Bft) W 261 0 min 0,000 mm 0,0 UV-I 19 W/m 2,1 C 3,1 C 4,8 km/h (1 Bft) 87,23 %
18.04.2017 07:54 3,1 C 93 % 1015,5 hPa 0,0 l/m 3,0 km/h (1 Bft) W 261 0 min 0,000 mm 0,0 UV-I 21 W/m 2,1 C 3,1 C 4,8 km/h (1 Bft) 97,22 %
18.04.2017 07:56 3,1 C 93 % 1015,4 hPa 0,0 l/m 2,1 km/h (1 Bft) W 261 0 min 0,000 mm 0,0 UV-I 25 W/m 2,1 C 3,1 C 3,2 km/h (1 Bft) 89,29 %
18.04.2017 07:58 3,1 C 93 % 1015,5 hPa 0,0 l/m 3,4 km/h (1 Bft) W 262 0 min 0,000 mm 0,0 UV-I 28 W/m 2,1 C 3,1 C 6,4 km/h (2 Bft) 90,00 %
18.04.2017 08:00 3,1 C 93 % 1015,4 hPa 0,0 l/m 0,2 km/h (0 Bft) W 262 0 min 0,025 mm 0,0 UV-I 42 W/m 2,1 C 3,1 C 1,6 km/h (1 Bft) 94,74 %
18.04.2017 08:02 3,1 C 93 % 1015,5 hPa 0,0 l/m 0,2 km/h (0 Bft) W 262 0 min 0,000 mm 0,0 UV-I 52 W/m 2,1 C 3,1 C 1,6 km/h (1 Bft) 95,74 %
18.04.2017 08:04 3,2 C 93 % 1015,5 hPa 0,0 l/m 1,4 km/h (1 Bft) W 262 0 min 0,000 mm 0,0 UV-I 69 W/m 2,2 C 3,2 C 3,2 km/h (1 Bft) 92,00 %
18.04.2017 08:06 3,2 C 93 % 1015,5 hPa 0,0 l/m 2,2 km/h (1 Bft) W 262 0 min 0,000 mm 0,0 UV-I 107 W/m 2,2 C 3,2 C 4,8 km/h (1 Bft) 94,34 %
18.04.2017 08:08 3,3 C 93 % 1015,5 hPa 0,0 l/m 3,2 km/h (1 Bft) W 262 0 min 0,000 mm 0,0 UV-I 172 W/m 2,3 C 3,3 C 4,8 km/h (1 Bft) 94,74 %
18.04.2017 08:10 3,4 C 94 % 1015,5 hPa 0,0 l/m 3,3 km/h (1 Bft) W 262 2 min 0,000 mm 0,0 UV-I 236 W/m 2,5 C 3,4 C 6,4 km/h (2 Bft) 93,62 %
18.04.2017 08:12 3,6 C 94 % 1015,5 hPa 0,0 l/m 2,0 km/h (1 Bft) W 262 2 min 0,000 mm 0,0 UV-I 191 W/m 2,7 C 3,6 C 3,2 km/h (1 Bft) 98,11 %
18.04.2017 08:14 3,7 C 94 % 1015,5 hPa 0,0 l/m 3,3 km/h (1 Bft) W 262 2 min 0,000 mm 0,0 UV-I 203 W/m 2,8 C 3,7 C 4,8 km/h (1 Bft) 98,00 %
18.04.2017 08:16 3,7 C 93 % 1015,5 hPa 0,0 l/m 2,7 km/h (1 Bft) W 262 2 min 0,000 mm 0,0 UV-I 232 W/m 2,7 C 3,7 C 4,8 km/h (1 Bft) 97,37 %
18.04.2017 08:18 3,8 C 93 % 1015,5 hPa 0,0 l/m 3,7 km/h (1 Bft) S 175 2 min 0,000 mm 0,0 UV-I 220 W/m 2,8 C 3,8 C 6,4 km/h (2 Bft) 100,00 %
18.04.2017 08:20 3,8 C 93 % 1015,5 hPa 0,0 l/m 2,5 km/h (1 Bft) S-SO 150 0 min 0,000 mm 0,0 UV-I 194 W/m 2,8 C 3,8 C 4,8 km/h (1 Bft) 98,00 %
18.04.2017 08:22 3,8 C 93 % 1015,5 hPa 0,0 l/m 4,3 km/h (1 Bft) SW 232 0 min 0,000 mm 0,0 UV-I 137 W/m 2,8 C 3,8 C 8,0 km/h (2 Bft) 100,00 %
18.04.2017 08:24 3,9 C 93 % 1015,6 hPa 0,0 l/m 5,2 km/h (1 Bft) SW 236 0 min 0,000 mm 0,0 UV-I 56 W/m 2,9 C 3,9 C 8,0 km/h (2 Bft) 96,00 %
18.04.2017 08:26 3,8 C 93 % 1015,5 hPa 0,0 l/m 2,3 km/h (1 Bft) SW 236 0 min 0,000 mm 0,0 UV-I 41 W/m 2,8 C 3,8 C 3,2 km/h (1 Bft) 97,44 %
18.04.2017 08:28 3,8 C 93 % 1015,5 hPa 0,0 l/m 5,4 km/h (1 Bft) S-SW 209 0 min 0,000 mm 0,0 UV-I 48 W/m 2,8 C 3,8 C 9,7 km/h (2 Bft) 100,00 %
18.04.2017 08:30 3,8 C 93 % 1015,5 hPa 0,0 l/m 4,5 km/h (1 Bft) SW 219 0 min 0,000 mm 0,0 UV-I 44 W/m 2,8 C 3,8 C 9,7 km/h (2 Bft) 100,00 %
18.04.2017 08:32 3,8 C 93 % 1015,5 hPa 0,0 l/m 2,4 km/h (1 Bft) SW 219 0 min 0,000 mm 0,0 UV-I 37 W/m 2,8 C 3,8 C 4,8 km/h (1 Bft) 100,00 %
18.04.2017 08:34 3,7 C 93 % 1015,5 hPa 0,0 l/m 3,7 km/h (1 Bft) SW 223 0 min 0,000 mm 0,0 UV-I 37 W/m 2,7 C 3,7 C 6,4 km/h (2 Bft) 100,00 %
18.04.2017 08:36 3,7 C 93 % 1015,5 hPa 0,0 l/m 4,4 km/h (1 Bft) W-SW 247 0 min 0,000 mm 0,0 UV-I 36 W/m 2,7 C 3,7 C 6,4 km/h (2 Bft) 100,00 %
18.04.2017 08:38 3,7 C 93 % 1015,5 hPa 0,2 l/m 2,7 km/h (1 Bft) W-SW 247 0 min 0,000 mm 0,0 UV-I 33 W/m 2,7 C 3,7 C 4,8 km/h (1 Bft) 98,00 %
18.04.2017 08:40 3,7 C 93 % 1015,5 hPa 0,0 l/m 1,1 km/h (1 Bft) W-SW 246 0 min 0,000 mm 0,0 UV-I 36 W/m 2,7 C 3,7 C 4,8 km/h (1 Bft) 97,37 %
18.04.2017 08:42 3,7 C 93 % 1015,5 hPa 0,0 l/m 4,3 km/h (1 Bft) W-SW 237 0 min 0,000 mm 0,0 UV-I 56 W/m 2,7 C 3,7 C 8,0 km/h (2 Bft) 98,11 %
18.04.2017 08:44 3,7 C 93 % 1015,5 hPa 0,0 l/m 9,2 km/h (2 Bft) W-SW 249 0 min 0,000 mm 0,0 UV-I 80 W/m 2,7 C 1,2 C 12,9 km/h (3 Bft) 100,00 %
18.04.2017 08:46 3,7 C 93 % 1015,6 hPa 0,0 l/m 7,6 km/h (2 Bft) W-SW 254 0 min 0,000 mm 0,2 UV-I 105 W/m 2,7 C 2,6 C 11,3 km/h (2 Bft) 96,00 %
18.04.2017 08:48 3,8 C 93 % 1015,6 hPa 0,0 l/m 4,3 km/h (1 Bft) W-SW 255 0 min 0,000 mm 0,5 UV-I 145 W/m 2,8 C 3,8 C 8,0 km/h (2 Bft) 97,37 %
18.04.2017 08:50 3,9 C 93 % 1015,5 hPa 0,0 l/m 5,7 km/h (1 Bft) W 266 0 min 0,000 mm 0,5 UV-I 176 W/m 2,9 C 3,9 C 8,0 km/h (2 Bft) 100,00 %
18.04.2017 08:52 3,9 C 93 % 1015,6 hPa 0,0 l/m 7,9 km/h (2 Bft) W-SW 252 0 min 0,000 mm 0,6 UV-I 195 W/m 2,9 C 2,5 C 12,9 km/h (3 Bft) 98,00 %
18.04.2017 08:54 4,0 C 93 % 1015,6 hPa 0,0 l/m 6,3 km/h (2 Bft) W-SW 252 0 min 0,000 mm 0,6 UV-I 189 W/m 3,0 C 4,0 C 12,9 km/h (3 Bft) 100,00 %
18.04.2017 08:56 4,1 C 92 % 1015,5 hPa 0,0 l/m 10,1 km/h (2 Bft) W 267 0 min 0,000 mm 0,6 UV-I 186 W/m 2,9 C 1,0 C 16,1 km/h (3 Bft) 97,87 %
18.04.2017 08:58 4,1 C 92 % 1015,6 hPa 0,0 l/m 5,5 km/h (1 Bft) W 279 0 min 0,000 mm 0,6 UV-I 205 W/m 2,9 C 4,1 C 9,7 km/h (2 Bft) 96,00 %
18.04.2017 09:00 4,2 C 91 % 1015,6 hPa 0,0 l/m 4,1 km/h (1 Bft) W-SW 246 2 min 0,051 mm 0,7 UV-I 260 W/m 2,9 C 4,2 C 11,3 km/h (2 Bft) 100,00 %
18.04.2017 09:02 4,2 C 91 % 1015,6 hPa 0,0 l/m 7,0 km/h (2 Bft) W 279 2 min 0,000 mm 0,7 UV-I 319 W/m 2,9 C 3,7 C 12,9 km/h (3 Bft) 96,23 %
18.04.2017 09:04 4,3 C 91 % 1015,5 hPa 0,0 l/m 7,3 km/h (2 Bft) W-NW 292 2 min 0,000 mm 0,7 UV-I 395 W/m 3,0 C 3,5 C 12,9 km/h (3 Bft) 100,00 %
18.04.2017 09:06 4,4 C 91 % 1015,5 hPa 0,0 l/m 4,8 km/h (1 Bft) W-SW 240 2 min 0,000 mm 0,3 UV-I 339 W/m 3,1 C 4,4 C 8,0 km/h (2 Bft) 100,00 %
18.04.2017 09:08 4,5 C 91 % 1015,5 hPa 0,0 l/m 6,5 km/h (2 Bft) W 270 0 min 0,000 mm 0,6 UV-I 229 W/m 3,2 C 4,4 C 11,3 km/h (2 Bft) 100,00 %
18.04.2017 09:10 4,4 C 89 % 1015,5 hPa 0,0 l/m 4,1 km/h (1 Bft) NW 313 2 min 0,000 mm 0,8 UV-I 292 W/m 2,7 C 4,4 C 6,4 km/h (2 Bft) 100,00 %
18.04.2017 09:12 4,5 C 90 % 1015,6 hPa 0,0 l/m 3,9 km/h (1 Bft) W-NW 302 2 min 0,000 mm 0,9 UV-I 376 W/m 3,0 C 4,5 C 6,4 km/h (2 Bft) 92,00 %
18.04.2017 09:14 4,5 C 89 % 1015,5 hPa 0,0 l/m 4,0 km/h (1 Bft) W-SW 247 2 min 0,000 mm 0,9 UV-I 394 W/m 2,8 C 4,5 C 11,3 km/h (2 Bft) 100,00 %
18.04.2017 09:16 4,7 C 90 % 1015,5 hPa 0,0 l/m 3,7 km/h (1 Bft) W-SW 257 2 min 0,000 mm 0,9 UV-I 399 W/m 3,2 C 4,7 C 9,7 km/h (2 Bft) 97,62 %
18.04.2017 09:18 4,9 C 89 % 1015,6 hPa 0,0 l/m 3,7 km/h (1 Bft) W 274 2 min 0,000 mm 0,9 UV-I 383 W/m 3,2 C 4,9 C 12,9 km/h (3 Bft) 92,11 %
18.04.2017 09:20 4,9 C 88 % 1015,6 hPa 0,0 l/m 4,0 km/h (1 Bft) N-NW 332 2 min 0,000 mm 0,9 UV-I 358 W/m 3,1 C 4,9 C 6,4 km/h (2 Bft) 98,00 %
18.04.2017 09:22 4,9 C 88 % 1015,6 hPa 0,0 l/m 3,4 km/h (1 Bft) N-NW 342 2 min 0,000 mm 0,8 UV-I 308 W/m 3,1 C 4,9 C 4,8 km/h (1 Bft) 98,11 %
18.04.2017 09:24 4,9 C 88 % 1015,6 hPa 0,0 l/m 5,4 km/h (1 Bft) W-NW 292 0 min 0,000 mm 0,6 UV-I 238 W/m 3,1 C 4,9 C 12,9 km/h (3 Bft) 92,68 %
18.04.2017 09:26 4,8 C 87 % 1015,5 hPa 0,0 l/m 6,6 km/h (2 Bft) NW 317 0 min 0,000 mm 0,2 UV-I 179 W/m 2,8 C 4,6 C 11,3 km/h (2 Bft) 93,62 %
18.04.2017 09:28 4,7 C 87 % 1015,6 hPa 0,0 l/m 4,2 km/h (1 Bft) W 281 0 min 0,000 mm 0,0 UV-I 136 W/m 2,7 C 4,7 C 12,9 km/h (3 Bft) 96,23 %
18.04.2017 09:30 4,5 C 88 % 1015,6 hPa 0,0 l/m 4,5 km/h (1 Bft) W 281 0 min 0,000 mm 0,0 UV-I 108 W/m 2,7 C 4,5 C 14,5 km/h (3 Bft) 94,74 %
18.04.2017 09:32 4,3 C 88 % 1015,7 hPa 0,0 l/m 8,0 km/h (2 Bft) W-NW 292 0 min 0,000 mm 0,0 UV-I 106 W/m 2,5 C 2,9 C 17,7 km/h (3 Bft) 97,73 %
18.04.2017 09:34 4,2 C 88 % 1015,6 hPa 0,0 l/m 7,0 km/h (2 Bft) W 262 0 min 0,000 mm 0,0 UV-I 107 W/m 2,4 C 3,7 C 19,3 km/h (3 Bft) 96,61 %
18.04.2017 09:36 4,1 C 89 % 1015,7 hPa 0,0 l/m 4,2 km/h (1 Bft) W 279 0 min 0,000 mm 0,0 UV-I 100 W/m 2,5 C 4,1 C 11,3 km/h (2 Bft) 86,36 %
18.04.2017 09:38 3,9 C 90 % 1015,7 hPa 0,0 l/m 5,9 km/h (2 Bft) N-NW 348 0 min 0,000 mm 0,0 UV-I 72 W/m 2,4 C 3,9 C 14,5 km/h (3 Bft) 94,00 %
18.04.2017 09:40 3,6 C 89 % 1015,8 hPa 0,0 l/m 7,5 km/h (2 Bft) NW 320 0 min 0,000 mm 0,0 UV-I 79 W/m 2,0 C 2,6 C 17,7 km/h (3 Bft) 93,62 %
18.04.2017 09:42 3,2 C 89 % 1015,8 hPa 0,2 l/m 7,2 km/h (2 Bft) N-NW 330 0 min 0,000 mm 0,0 UV-I 81 W/m 1,6 C 2,4 C 17,7 km/h (3 Bft) 97,73 %
18.04.2017 09:44 2,8 C 90 % 1015,8 hPa 0,0 l/m 8,8 km/h (2 Bft) NW 321 0 min 0,000 mm 0,0 UV-I 64 W/m 1,3 C 0,6 C 16,1 km/h (3 Bft) 90,91 %
18.04.2017 09:46 2,5 C 90 % 1015,9 hPa 0,0 l/m 5,6 km/h (1 Bft) W-NW 295 0 min 0,000 mm 0,0 UV-I 44 W/m 1,0 C 2,5 C 12,9 km/h (3 Bft) 96,23 %
18.04.2017 09:48 2,2 C 91 % 1016,1 hPa 0,0 l/m 9,6 km/h (2 Bft) NW 323 0 min 0,000 mm 0,0 UV-I 31 W/m 0,9 C -0,7 C 19,3 km/h (3 Bft) 97,67 %
18.04.2017 09:50 1,9 C 91 % 1016,1 hPa 0,0 l/m 5,8 km/h (2 Bft) NW 319 0 min 0,000 mm 0,0 UV-I 22 W/m 0,6 C 1,9 C 12,9 km/h (3 Bft) 94,34 %
18.04.2017 09:52 1,7 C 91 % 1016,1 hPa 0,0 l/m 5,5 km/h (1 Bft) N-NW 346 0 min 0,000 mm 0,0 UV-I 18 W/m 0,4 C 1,7 C 12,9 km/h (3 Bft) 94,44 %
18.04.2017 09:54 1,4 C 91 % 1016,1 hPa 0,0 l/m 4,5 km/h (1 Bft) N-NW 333 0 min 0,000 mm 0,0 UV-I 17 W/m 0,1 C 1,4 C 12,9 km/h (3 Bft) 94,00 %
18.04.2017 09:56 1,2 C 92 % 1016,1 hPa 0,0 l/m 4,9 km/h (1 Bft) NW 323 0 min 0,000 mm 0,0 UV-I 18 W/m 0,0 C 1,2 C 14,5 km/h (3 Bft) 97,56 %
18.04.2017 09:58 1,0 C 92 % 1016,1 hPa 0,0 l/m 3,7 km/h (1 Bft) N-NW 329 0 min 0,000 mm 0,0 UV-I 19 W/m -0,2 C 1,0 C 8,0 km/h (2 Bft) 98,21 %
18.04.2017 10:00 0,8 C 92 % 1016,1 hPa 0,0 l/m 5,2 km/h (1 Bft) N 350 0 min 0,076 mm 0,0 UV-I 19 W/m -0,3 C 0,8 C 11,3 km/h (2 Bft) 97,37 %
18.04.2017 10:02 0,7 C 93 % 1016,2 hPa 0,0 l/m 4,1 km/h (1 Bft) W-NW 294 0 min 0,000 mm 0,0 UV-I 21 W/m -0,3 C 0,7 C 8,0 km/h (2 Bft) 96,43 %
18.04.2017 10:04 0,6 C 93 % 1016,3 hPa 0,0 l/m 4,1 km/h (1 Bft) NW 311 0 min 0,000 mm 0,0 UV-I 24 W/m -0,4 C 0,6 C 8,0 km/h (2 Bft) 93,62 %
18.04.2017 10:06 0,6 C 93 % 1016,3 hPa 0,0 l/m 3,3 km/h (1 Bft) NW 311 0 min 0,000 mm 0,0 UV-I 28 W/m -0,4 C 0,6 C 4,8 km/h (1 Bft) 98,00 %
18.04.2017 10:08 0,6 C 94 % 1016,3 hPa 0,0 l/m 2,8 km/h (1 Bft) NW 306 0 min 0,000 mm 0,0 UV-I 32 W/m -0,3 C 0,6 C 4,8 km/h (1 Bft) 91,30 %
18.04.2017 10:10 0,5 C 94 % 1016,3 hPa 0,0 l/m 1,0 km/h (0 Bft) NW 321 0 min 0,000 mm 0,0 UV-I 33 W/m -0,4 C 0,5 C 1,6 km/h (1 Bft) 97,06 %
18.04.2017 10:12 0,5 C 94 % 1016,4 hPa 0,0 l/m 1,4 km/h (1 Bft) NW 318 0 min 0,000 mm 0,0 UV-I 36 W/m -0,4 C 0,5 C 4,8 km/h (1 Bft) 97,73 %
18.04.2017 10:14 0,5 C 94 % 1016,4 hPa 0,0 l/m 0,1 km/h (0 Bft) NW 318 0 min 0,000 mm 0,0 UV-I 40 W/m -0,4 C 0,5 C 1,6 km/h (1 Bft) 98,11 %
18.04.2017 10:16 0,5 C 94 % 1016,4 hPa 0,0 l/m 0,4 km/h (0 Bft) NW 318 0 min 0,000 mm 0,0 UV-I 41 W/m -0,4 C 0,5 C 1,6 km/h (1 Bft) 97,37 %
18.04.2017 10:18 0,5 C 94 % 1016,4 hPa 0,0 l/m 1,1 km/h (1 Bft) N-NW 331 0 min 0,000 mm 0,0 UV-I 40 W/m -0,4 C 0,5 C 3,2 km/h (1 Bft) 95,12 %
18.04.2017 10:20 0,5 C 94 % 1016,4 hPa 0,0 l/m 0,5 km/h (0 Bft) N-NW 331 0 min 0,000 mm 0,0 UV-I 39 W/m -0,4 C 0,5 C 3,2 km/h (1 Bft) 94,34 %
18.04.2017 10:22 0,5 C 95 % 1016,6 hPa 0,0 l/m 1,4 km/h (1 Bft) W-NW 291 0 min 0,000 mm 0,0 UV-I 35 W/m -0,2 C 0,5 C 3,2 km/h (1 Bft) 95,74 %
18.04.2017 10:24 0,6 C 95 % 1016,5 hPa 0,0 l/m 1,6 km/h (1 Bft) NW 307 0 min 0,000 mm 0,0 UV-I 34 W/m -0,1 C 0,6 C 3,2 km/h (1 Bft) 100,00 %
18.04.2017 10:26 0,6 C 95 % 1016,6 hPa 0,0 l/m 3,1 km/h (1 Bft) W-NW 292 0 min 0,000 mm 0,0 UV-I 33 W/m -0,1 C 0,6 C 4,8 km/h (1 Bft) 96,72 %
18.04.2017 10:28 0,6 C 95 % 1016,6 hPa 0,0 l/m 1,6 km/h (1 Bft) W-NW 292 0 min 0,000 mm 0,0 UV-I 35 W/m -0,1 C 0,6 C 3,2 km/h (1 Bft) 96,00 %
18.04.2017 10:30 0,6 C 95 % 1016,7 hPa 0,0 l/m 2,2 km/h (1 Bft) W-NW 292 0 min 0,000 mm 0,0 UV-I 39 W/m -0,1 C 0,6 C 4,8 km/h (1 Bft) 98,11 %
18.04.2017 10:32 0,6 C 95 % 1016,7 hPa 0,0 l/m 2,5 km/h (1 Bft) W-NW 292 0 min 0,000 mm 0,0 UV-I 39 W/m -0,1 C 0,6 C 4,8 km/h (1 Bft) 97,62 %
18.04.2017 10:34 0,6 C 95 % 1016,6 hPa 0,0 l/m 4,3 km/h (1 Bft) W-SW 258 0 min 0,000 mm 0,0 UV-I 39 W/m -0,1 C 0,6 C 9,7 km/h (2 Bft) 100,00 %
18.04.2017 10:36 0,7 C 95 % 1016,8 hPa 0,0 l/m 4,5 km/h (1 Bft) W 265 0 min 0,000 mm 0,0 UV-I 37 W/m -0,0 C 0,7 C 6,4 km/h (2 Bft) 97,87 %
18.04.2017 10:38 0,7 C 95 % 1016,8 hPa 0,0 l/m 3,8 km/h (1 Bft) W-SW 255 0 min 0,000 mm 0,0 UV-I 39 W/m -0,0 C 0,7 C 4,8 km/h (1 Bft) 100,00 %
18.04.2017 10:40 0,7 C 95 % 1016,8 hPa 0,0 l/m 4,4 km/h (1 Bft) W 267 0 min 0,000 mm 0,0 UV-I 35 W/m -0,0 C 0,7 C 6,4 km/h (2 Bft) 96,23 %
18.04.2017 10:42 0,7 C 95 % 1016,8 hPa 0,0 l/m 4,4 km/h (1 Bft) W-SW 258 0 min 0,000 mm 0,0 UV-I 32 W/m -0,0 C 0,7 C 6,4 km/h (2 Bft) 93,62 %
18.04.2017 10:44 0,7 C 95 % 1016,9 hPa 0,0 l/m 4,4 km/h (1 Bft) W-SW 240 0 min 0,000 mm 0,0 UV-I 28 W/m -0,0 C 0,7 C 6,4 km/h (2 Bft) 92,68 %
18.04.2017 10:46 0,6 C 95 % 1016,9 hPa 0,0 l/m 5,2 km/h (1 Bft) W-SW 249 0 min 0,000 mm 0,0 UV-I 28 W/m -0,1 C 0,6 C 8,0 km/h (2 Bft) 98,04 %
18.04.2017 10:48 0,6 C 95 % 1016,9 hPa 0,0 l/m 6,1 km/h (2 Bft) SW 229 0 min 0,000 mm 0,0 UV-I 26 W/m -0,1 C 0,6 C 8,0 km/h (2 Bft) 96,00 %
18.04.2017 10:50 0,6 C 95 % 1017,0 hPa 0,0 l/m 5,4 km/h (1 Bft) W-SW 248 0 min 0,000 mm 0,0 UV-I 25 W/m -0,1 C 0,6 C 6,4 km/h (2 Bft) 97,56 %
18.04.2017 10:52 0,6 C 95 % 1017,0 hPa 0,0 l/m 5,8 km/h (2 Bft) W-SW 251 0 min 0,000 mm 0,0 UV-I 25 W/m -0,1 C 0,6 C 9,7 km/h (2 Bft) 97,73 %
18.04.2017 10:54 0,6 C 95 % 1017,1 hPa 0,0 l/m 5,5 km/h (1 Bft) W-SW 246 0 min 0,000 mm 0,0 UV-I 23 W/m -0,1 C 0,6 C 6,4 km/h (2 Bft) 100,00 %
18.04.2017 10:58 0,6 C 95 % 1017,2 hPa 0,0 l/m 4,5 km/h (1 Bft) W-SW 238 0 min 0,000 mm 0,0 UV-I 27 W/m -0,1 C 0,6 C 6,4 km/h (2 Bft) 95,76 %
18.04.2017 11:00 0,6 C 96 % 1017,2 hPa 0,0 l/m 7,3 km/h (2 Bft) W 266 0 min 0,000 mm 0,0 UV-I 30 W/m 0,0 C -0,3 C 11,3 km/h (2 Bft) 95,38 %
18.04.2017 11:02 0,6 C 96 % 1017,2 hPa 0,0 l/m 6,1 km/h (2 Bft) SW 232 0 min 0,000 mm 0,0 UV-I 33 W/m 0,0 C 0,6 C 9,7 km/h (2 Bft) 94,74 %
18.04.2017 11:04 0,6 C 96 % 1017,2 hPa 0,0 l/m 4,8 km/h (1 Bft) W 263 0 min 0,000 mm 0,0 UV-I 36 W/m 0,0 C 0,6 C 6,4 km/h (2 Bft) 94,00 %
18.04.2017 11:06 0,6 C 96 % 1017,2 hPa 0,0 l/m 5,3 km/h (1 Bft) W 271 0 min 0,000 mm 0,0 UV-I 39 W/m 0,0 C 0,6 C 9,7 km/h (2 Bft) 96,00 %
18.04.2017 11:08 0,6 C 96 % 1017,3 hPa 0,0 l/m 4,9 km/h (1 Bft) W-SW 239 0 min 0,000 mm 0,0 UV-I 42 W/m 0,0 C 0,6 C 6,4 km/h (2 Bft) 95,74 %
18.04.2017 11:10 0,6 C 96 % 1017,3 hPa 0,0 l/m 5,1 km/h (1 Bft) W-SW 255 0 min 0,000 mm 0,0 UV-I 52 W/m 0,0 C 0,6 C 6,4 km/h (2 Bft) 95,74 %
18.04.2017 11:12 0,7 C 96 % 1017,3 hPa 0,0 l/m 5,6 km/h (1 Bft) W-SW 244 0 min 0,000 mm 0,0 UV-I 59 W/m 0,1 C 0,7 C 8,0 km/h (2 Bft) 98,04 %
18.04.2017 11:14 0,7 C 96 % 1017,3 hPa 0,0 l/m 6,4 km/h (2 Bft) SW 232 0 min 0,000 mm 0,0 UV-I 62 W/m 0,1 C 0,7 C 11,3 km/h (2 Bft) 90,24 %
18.04.2017 11:16 0,7 C 96 % 1017,3 hPa 0,0 l/m 5,8 km/h (2 Bft) SW 217 0 min 0,000 mm 0,0 UV-I 62 W/m 0,1 C 0,7 C 8,0 km/h (2 Bft) 92,11 %
18.04.2017 11:18 0,8 C 96 % 1017,4 hPa 0,0 l/m 6,0 km/h (2 Bft) W-SW 248 0 min 0,000 mm 0,0 UV-I 59 W/m 0,2 C 0,8 C 8,0 km/h (2 Bft) 94,55 %
18.04.2017 11:20 0,8 C 96 % 1017,4 hPa 0,0 l/m 5,3 km/h (1 Bft) SW 221 0 min 0,000 mm 0,0 UV-I 57 W/m 0,2 C 0,8 C 8,0 km/h (2 Bft) 98,11 %
18.04.2017 11:22 0,8 C 96 % 1017,4 hPa 0,0 l/m 5,5 km/h (1 Bft) SW 231 0 min 0,000 mm 0,0 UV-I 55 W/m 0,2 C 0,8 C 6,4 km/h (2 Bft) 91,43 %
18.04.2017 11:24 0,8 C 96 % 1017,4 hPa 0,0 l/m 5,6 km/h (1 Bft) SW 232 0 min 0,000 mm 0,0 UV-I 58 W/m 0,2 C 0,8 C 8,0 km/h (2 Bft) 98,00 %
18.04.2017 11:26 0,8 C 96 % 1017,4 hPa 0,0 l/m 6,1 km/h (2 Bft) SW 228 0 min 0,000 mm 0,0 UV-I 60 W/m 0,2 C 0,8 C 9,7 km/h (2 Bft) 96,00 %
18.04.2017 11:28 0,8 C 96 % 1017,4 hPa 0,0 l/m 6,5 km/h (2 Bft) W-SW 238 0 min 0,000 mm 0,0 UV-I 61 W/m 0,2 C 0,7 C 8,0 km/h (2 Bft) 87,80 %
18.04.2017 11:30 0,8 C 96 % 1017,4 hPa 0,0 l/m 5,2 km/h (1 Bft) SW 227 0 min 0,000 mm 0,0 UV-I 66 W/m 0,2 C 0,8 C 8,0 km/h (2 Bft) 98,00 %
18.04.2017 11:32 0,8 C 96 % 1017,4 hPa 0,0 l/m 4,9 km/h (1 Bft) SW 225 0 min 0,000 mm 0,0 UV-I 72 W/m 0,2 C 0,8 C 6,4 km/h (2 Bft) 90,57 %
18.04.2017 11:34 0,8 C 96 % 1017,5 hPa 0,0 l/m 4,6 km/h (1 Bft) SW 233 0 min 0,000 mm 0,0 UV-I 71 W/m 0,2 C 0,8 C 8,0 km/h (2 Bft) 93,62 %
18.04.2017 11:36 0,8 C 96 % 1017,4 hPa 0,0 l/m 3,4 km/h (1 Bft) SW 230 0 min 0,000 mm 0,0 UV-I 72 W/m 0,2 C 0,8 C 6,4 km/h (2 Bft) 87,23 %
18.04.2017 11:38 0,8 C 96 % 1017,4 hPa 0,0 l/m 2,8 km/h (1 Bft) W-SW 237 0 min 0,000 mm 0,0 UV-I 71 W/m 0,2 C 0,8 C 6,4 km/h (2 Bft) 97,37 %
18.04.2017 11:40 0,8 C 96 % 1017,5 hPa 0,0 l/m 3,6 km/h (1 Bft) SW 217 0 min 0,000 mm 0,0 UV-I 73 W/m 0,2 C 0,8 C 8,0 km/h (2 Bft) 91,49 %
18.04.2017 11:42 0,8 C 96 % 1017,4 hPa 0,0 l/m 4,6 km/h (1 Bft) SW 228 0 min 0,000 mm 0,0 UV-I 72 W/m 0,2 C 0,8 C 6,4 km/h (2 Bft) 92,45 %
18.04.2017 11:44 0,8 C 96 % 1017,5 hPa 0,0 l/m 4,4 km/h (1 Bft) SW 230 0 min 0,000 mm 0,0 UV-I 71 W/m 0,2 C 0,8 C 8,0 km/h (2 Bft) 92,00 %
18.04.2017 11:46 0,9 C 96 % 1017,4 hPa 0,0 l/m 5,6 km/h (1 Bft) W-SW 247 0 min 0,000 mm 0,0 UV-I 78 W/m 0,3 C 0,9 C 6,4 km/h (2 Bft) 95,12 %
18.04.2017 11:48 0,9 C 96 % 1017,5 hPa 0,0 l/m 4,1 km/h (1 Bft) W-SW 241 0 min 0,000 mm 0,0 UV-I 91 W/m 0,3 C 0,9 C 6,4 km/h (2 Bft) 93,62 %
18.04.2017 11:50 1,0 C 96 % 1017,4 hPa 0,0 l/m 4,9 km/h (1 Bft) SW 234 0 min 0,000 mm 0,0 UV-I 103 W/m 0,4 C 1,0 C 8,0 km/h (2 Bft) 94,44 %
18.04.2017 11:52 1,1 C 96 % 1017,5 hPa 0,0 l/m 5,9 km/h (2 Bft) S-SW 201 0 min 0,000 mm 0,1 UV-I 131 W/m 0,5 C 1,1 C 8,0 km/h (2 Bft) 95,31 %
18.04.2017 11:54 1,2 C 96 % 1017,5 hPa 0,0 l/m 5,2 km/h (1 Bft) SW 217 0 min 0,000 mm 0,5 UV-I 157 W/m 0,6 C 1,2 C 8,0 km/h (2 Bft) 94,44 %
18.04.2017 11:56 1,3 C 96 % 1017,5 hPa 0,0 l/m 4,4 km/h (1 Bft) W-SW 238 0 min 0,000 mm 0,6 UV-I 189 W/m 0,7 C 1,3 C 8,0 km/h (2 Bft) 92,16 %
18.04.2017 11:58 1,4 C 96 % 1017,4 hPa 0,0 l/m 5,2 km/h (1 Bft) W-SW 252 0 min 0,000 mm 0,7 UV-I 224 W/m 0,8 C 1,4 C 11,3 km/h (2 Bft) 94,34 %
18.04.2017 12:00 1,7 C 96 % 1017,5 hPa 0,0 l/m 6,4 km/h (2 Bft) SW 227 0 min 0,026 mm 0,8 UV-I 276 W/m 1,1 C 1,7 C 11,3 km/h (2 Bft) 91,49 %
18.04.2017 12:02 1,8 C 96 % 1017,4 hPa 0,0 l/m 5,3 km/h (1 Bft) W-SW 240 0 min 0,000 mm 0,9 UV-I 346 W/m 1,2 C 1,8 C 8,0 km/h (2 Bft) 100,00 %
18.04.2017 12:04 2,1 C 96 % 1017,4 hPa 0,0 l/m 4,8 km/h (1 Bft) SW 225 0 min 0,000 mm 1,0 UV-I 372 W/m 1,5 C 2,1 C 9,7 km/h (2 Bft) 96,23 %
18.04.2017 12:06 2,3 C 96 % 1017,4 hPa 0,0 l/m 4,9 km/h (1 Bft) W-NW 284 0 min 0,000 mm 1,0 UV-I 367 W/m 1,7 C 2,3 C 8,0 km/h (2 Bft) 98,00 %
18.04.2017 12:08 2,4 C 96 % 1017,4 hPa 0,0 l/m 4,6 km/h (1 Bft) W 271 0 min 0,000 mm 1,0 UV-I 314 W/m 1,8 C 2,4 C 8,0 km/h (2 Bft) 98,00 %
18.04.2017 12:10 2,6 C 96 % 1017,4 hPa 0,0 l/m 4,9 km/h (1 Bft) W-SW 257 0 min 0,000 mm 1,0 UV-I 300 W/m 2,0 C 2,6 C 9,7 km/h (2 Bft) 100,00 %
18.04.2017 12:12 2,7 C 96 % 1017,4 hPa 0,0 l/m 5,8 km/h (2 Bft) SW 235 0 min 0,000 mm 1,0 UV-I 282 W/m 2,1 C 2,7 C 9,7 km/h (2 Bft) 98,63 %
18.04.2017 12:14 2,8 C 95 % 1017,4 hPa 0,0 l/m 6,3 km/h (2 Bft) W-SW 249 0 min 0,000 mm 1,1 UV-I 277 W/m 2,1 C 2,8 C 8,0 km/h (2 Bft) 100,00 %
18.04.2017 12:16 2,8 C 95 % 1017,3 hPa 0,0 l/m 5,9 km/h (2 Bft) W-SW 252 0 min 0,000 mm 1,1 UV-I 275 W/m 2,1 C 2,8 C 11,3 km/h (2 Bft) 98,11 %
18.04.2017 12:18 2,9 C 95 % 1017,4 hPa 0,0 l/m 5,6 km/h (1 Bft) S-SW 210 0 min 0,000 mm 1,1 UV-I 259 W/m 2,2 C 2,9 C 9,7 km/h (2 Bft) 100,00 %
18.04.2017 12:20 3,0 C 95 % 1017,3 hPa 0,0 l/m 4,9 km/h (1 Bft) S-SW 209 0 min 0,000 mm 1,0 UV-I 224 W/m 2,3 C 3,0 C 8,0 km/h (2 Bft) 97,56 %
18.04.2017 12:22 3,1 C 94 % 1017,3 hPa 0,0 l/m 6,1 km/h (2 Bft) W-SW 239 0 min 0,000 mm 0,9 UV-I 202 W/m 2,2 C 3,1 C 11,3 km/h (2 Bft) 98,00 %
18.04.2017 12:24 3,1 C 94 % 1017,3 hPa 0,0 l/m 4,9 km/h (1 Bft) S-SW 211 0 min 0,000 mm 0,8 UV-I 190 W/m 2,2 C 3,1 C 8,0 km/h (2 Bft) 98,00 %
18.04.2017 12:26 3,2 C 94 % 1017,3 hPa 0,0 l/m 7,4 km/h (2 Bft) W-SW 249 0 min 0,000 mm 1,0 UV-I 215 W/m 2,3 C 2,3 C 12,9 km/h (3 Bft) 97,62 %
18.04.2017 12:28 3,2 C 94 % 1017,3 hPa 0,0 l/m 6,6 km/h (2 Bft) W 265 0 min 0,000 mm 1,0 UV-I 221 W/m 2,3 C 3,0 C 12,9 km/h (3 Bft) 100,00 %
18.04.2017 12:30 3,3 C 94 % 1017,3 hPa 0,2 l/m 6,9 km/h (2 Bft) W-SW 258 0 min 0,000 mm 1,1 UV-I 240 W/m 2,4 C 2,8 C 12,9 km/h (3 Bft) 97,44 %
18.04.2017 12:32 3,4 C 94 % 1017,3 hPa 0,2 l/m 5,1 km/h (1 Bft) W 281 0 min 0,000 mm 1,1 UV-I 242 W/m 2,5 C 3,4 C 6,4 km/h (2 Bft) 98,18 %
18.04.2017 12:34 3,4 C 93 % 1017,3 hPa 0,2 l/m 6,0 km/h (2 Bft) W-SW 246 0 min 0,000 mm 1,0 UV-I 230 W/m 2,4 C 3,4 C 9,7 km/h (2 Bft) 97,44 %
18.04.2017 12:36 3,4 C 93 % 1017,3 hPa 0,0 l/m 7,9 km/h (2 Bft) W 263 0 min 0,000 mm 1,0 UV-I 222 W/m 2,4 C 2,0 C 11,3 km/h (2 Bft) 98,21 %
18.04.2017 12:38 3,5 C 93 % 1017,3 hPa 0,2 l/m 4,0 km/h (1 Bft) W 269 0 min 0,000 mm 0,8 UV-I 195 W/m 2,5 C 3,5 C 6,4 km/h (2 Bft) 97,37 %
18.04.2017 12:40 3,6 C 93 % 1017,2 hPa 0,2 l/m 6,0 km/h (2 Bft) W-SW 252 0 min 0,000 mm 0,6 UV-I 164 W/m 2,6 C 3,6 C 9,7 km/h (2 Bft) 90,57 %
18.04.2017 12:42 3,6 C 93 % 1017,2 hPa 0,0 l/m 4,9 km/h (1 Bft) W-NW 284 0 min 0,000 mm 0,7 UV-I 182 W/m 2,6 C 3,6 C 11,3 km/h (2 Bft) 95,74 %
18.04.2017 12:44 3,6 C 93 % 1017,2 hPa 0,2 l/m 3,8 km/h (1 Bft) W 268 0 min 0,000 mm 1,2 UV-I 265 W/m 2,6 C 3,6 C 6,4 km/h (2 Bft) 97,37 %
18.04.2017 12:46 3,7 C 93 % 1017,2 hPa 0,0 l/m 5,3 km/h (1 Bft) W 270 0 min 0,000 mm 1,0 UV-I 222 W/m 2,7 C 3,7 C 9,7 km/h (2 Bft) 98,21 %
18.04.2017 12:48 3,7 C 93 % 1017,1 hPa 0,2 l/m 4,7 km/h (1 Bft) SW 222 0 min 0,000 mm 0,5 UV-I 148 W/m 2,7 C 3,7 C 8,0 km/h (2 Bft) 100,00 %
18.04.2017 12:50 3,7 C 92 % 1017,1 hPa 0,0 l/m 6,0 km/h (2 Bft) W-NW 284 0 min 0,000 mm 0,6 UV-I 161 W/m 2,5 C 3,7 C 11,3 km/h (2 Bft) 98,11 %
18.04.2017 12:52 3,7 C 92 % 1017,1 hPa 0,2 l/m 7,2 km/h (2 Bft) W-SW 257 0 min 0,000 mm 1,0 UV-I 228 W/m 2,5 C 3,0 C 14,5 km/h (3 Bft) 100,00 %
18.04.2017 12:54 3,8 C 92 % 1017,1 hPa 0,2 l/m 7,9 km/h (2 Bft) W 278 0 min 0,000 mm 1,4 UV-I 343 W/m 2,6 C 2,4 C 14,5 km/h (3 Bft) 100,00 %
18.04.2017 12:56 3,9 C 92 % 1017,1 hPa 0,0 l/m 11,7 km/h (2 Bft) W-SW 247 2 min 0,000 mm 1,8 UV-I 440 W/m 2,7 C -0,3 C 16,1 km/h (3 Bft) 100,00 %
18.04.2017 12:58 4,1 C 92 % 1017,0 hPa 0,2 l/m 12,5 km/h (3 Bft) W 261 2 min 0,000 mm 1,9 UV-I 485 W/m 2,9 C -0,6 C 20,9 km/h (4 Bft) 94,34 %
18.04.2017 13:00 4,3 C 91 % 1017,0 hPa 0,2 l/m 11,5 km/h (2 Bft) W-SW 240 2 min 0,101 mm 2,1 UV-I 506 W/m 3,0 C 0,3 C 17,7 km/h (3 Bft) 100,00 %
18.04.2017 13:02 4,4 C 90 % 1017,0 hPa 0,2 l/m 9,9 km/h (2 Bft) SW 232 2 min 0,000 mm 1,8 UV-I 465 W/m 2,9 C 1,5 C 14,5 km/h (3 Bft) 96,72 %
18.04.2017 13:04 4,4 C 90 % 1017,0 hPa 0,2 l/m 9,6 km/h (2 Bft) W-NW 289 0 min 0,000 mm 1,5 UV-I 342 W/m 2,9 C 1,7 C 16,1 km/h (3 Bft) 96,00 %
18.04.2017 13:06 4,4 C 90 % 1017,1 hPa 0,2 l/m 18,7 km/h (3 Bft) W 263 2 min 0,000 mm 2,0 UV-I 437 W/m 2,9 C -3,4 C 29,0 km/h (5 Bft) 100,00 %
18.04.2017 13:08 4,3 C 88 % 1017,0 hPa 0,2 l/m 18,9 km/h (3 Bft) W-SW 252 2 min 0,000 mm 2,2 UV-I 515 W/m 2,5 C -3,6 C 29,0 km/h (5 Bft) 100,00 %
18.04.2017 13:10 4,2 C 87 % 1017,1 hPa 0,2 l/m 15,3 km/h (3 Bft) SW 229 2 min 0,000 mm 2,2 UV-I 523 W/m 2,2 C -2,0 C 20,9 km/h (4 Bft) 97,87 %
18.04.2017 13:12 4,2 C 88 % 1017,1 hPa 0,2 l/m 13,0 km/h (3 Bft) W 268 2 min 0,000 mm 2,1 UV-I 522 W/m 2,4 C -0,8 C 20,9 km/h (4 Bft) 98,11 %
18.04.2017 13:14 4,3 C 88 % 1017,1 hPa 0,0 l/m 15,9 km/h (3 Bft) SW 226 2 min 0,000 mm 1,9 UV-I 464 W/m 2,5 C -2,2 C 22,5 km/h (4 Bft) 100,00 %
18.04.2017 13:16 4,3 C 88 % 1017,1 hPa 0,2 l/m 16,8 km/h (3 Bft) W 271 0 min 0,000 mm 1,8 UV-I 410 W/m 2,5 C -2,7 C 24,1 km/h (4 Bft) 100,00 %
18.04.2017 13:18 4,4 C 89 % 1017,1 hPa 0,2 l/m 13,4 km/h (3 Bft) SW 225 0 min 0,000 mm 1,6 UV-I 400 W/m 2,7 C -0,8 C 20,9 km/h (4 Bft) 98,11 %
18.04.2017 13:20 4,4 C 87 % 1017,3 hPa 0,2 l/m 21,1 km/h (4 Bft) S-SW 208 0 min 0,000 mm 1,4 UV-I 354 W/m 2,4 C -4,4 C 35,4 km/h (5 Bft) 97,37 %
18.04.2017 13:22 4,3 C 86 % 1017,2 hPa 0,0 l/m 20,2 km/h (4 Bft) SW 235 0 min 0,000 mm 1,3 UV-I 320 W/m 2,2 C -4,2 C 30,6 km/h (5 Bft) 96,43 %
18.04.2017 13:24 4,2 C 86 % 1017,2 hPa 0,2 l/m 23,0 km/h (4 Bft) W-SW 251 0 min 0,000 mm 1,1 UV-I 249 W/m 2,1 C -5,3 C 30,6 km/h (5 Bft) 97,56 %
18.04.2017 13:26 4,1 C 86 % 1017,2 hPa 0,0 l/m 17,4 km/h (3 Bft) SW 225 0 min 0,000 mm 0,8 UV-I 206 W/m 2,0 C -3,2 C 25,7 km/h (4 Bft) 95,12 %
18.04.2017 13:28 4,0 C 86 % 1017,2 hPa 0,2 l/m 23,1 km/h (4 Bft) W-SW 255 0 min 0,000 mm 0,9 UV-I 209 W/m 1,9 C -5,6 C 32,2 km/h (5 Bft) 98,31 %
18.04.2017 13:30 3,8 C 86 % 1017,3 hPa 0,0 l/m 23,7 km/h (4 Bft) W 259 0 min 0,000 mm 0,9 UV-I 205 W/m 1,7 C -6,1 C 32,2 km/h (5 Bft) 97,37 %
18.04.2017 13:32 3,8 C 86 % 1017,2 hPa 0,2 l/m 20,8 km/h (4 Bft) S 183 0 min 0,000 mm 0,9 UV-I 222 W/m 1,7 C -5,0 C 29,0 km/h (5 Bft) 94,34 %
18.04.2017 13:34 3,8 C 86 % 1017,2 hPa 0,0 l/m 19,5 km/h (3 Bft) SW 228 0 min 0,000 mm 0,9 UV-I 237 W/m 1,7 C -4,5 C 30,6 km/h (5 Bft) 97,37 %
18.04.2017 13:36 3,8 C 87 % 1017,2 hPa 0,0 l/m 16,9 km/h (3 Bft) SW 220 0 min 0,000 mm 1,0 UV-I 263 W/m 1,8 C -3,3 C 27,4 km/h (4 Bft) 93,18 %
18.04.2017 13:38 3,9 C 87 % 1017,1 hPa 0,2 l/m 18,7 km/h (3 Bft) W 261 0 min 0,000 mm 1,1 UV-I 293 W/m 1,9 C -4,0 C 25,7 km/h (4 Bft) 96,43 %
18.04.2017 13:40 4,0 C 87 % 1017,1 hPa 0,0 l/m 16,5 km/h (3 Bft) SW 233 0 min 0,000 mm 1,2 UV-I 305 W/m 2,0 C -2,9 C 24,1 km/h (4 Bft) 97,44 %
18.04.2017 13:42 4,1 C 86 % 1017,2 hPa 0,0 l/m 17,6 km/h (3 Bft) W-SW 250 0 min 0,000 mm 1,2 UV-I 300 W/m 2,0 C -3,3 C 30,6 km/h (5 Bft) 96,36 %
18.04.2017 13:44 4,2 C 87 % 1017,2 hPa 0,2 l/m 17,2 km/h (3 Bft) W-SW 245 0 min 0,000 mm 1,5 UV-I 392 W/m 2,2 C -3,0 C 20,9 km/h (4 Bft) 90,91 %
18.04.2017 13:46 4,3 C 87 % 1017,1 hPa 0,0 l/m 15,7 km/h (3 Bft) SW 226 0 min 0,000 mm 1,6 UV-I 380 W/m 2,3 C -2,1 C 24,1 km/h (4 Bft) 90,00 %
18.04.2017 13:48 4,4 C 86 % 1017,2 hPa 0,0 l/m 17,1 km/h (3 Bft) W 265 0 min 0,000 mm 1,8 UV-I 423 W/m 2,3 C -2,7 C 27,4 km/h (4 Bft) 94,00 %
18.04.2017 13:50 4,6 C 86 % 1017,2 hPa 0,2 l/m 17,7 km/h (3 Bft) W 259 2 min 0,000 mm 2,0 UV-I 661 W/m 2,5 C -2,7 C 30,6 km/h (5 Bft) 95,74 %
18.04.2017 13:52 4,8 C 86 % 1017,3 hPa 0,0 l/m 17,3 km/h (3 Bft) W 261 2 min 0,000 mm 2,8 UV-I 1078 W/m 2,7 C -2,3 C 25,7 km/h (4 Bft) 100,00 %
18.04.2017 13:54 5,1 C 86 % 1017,1 hPa 0,2 l/m 13,3 km/h (3 Bft) W-SW 243 2 min 0,000 mm 2,6 UV-I 595 W/m 3,0 C 0,1 C 32,2 km/h (5 Bft) 100,00 %
18.04.2017 13:56 5,3 C 84 % 1017,1 hPa 0,0 l/m 20,9 km/h (4 Bft) W-SW 242 2 min 0,000 mm 2,4 UV-I 610 W/m 2,8 C -3,1 C 30,6 km/h (5 Bft) 100,00 %
18.04.2017 13:58 5,3 C 85 % 1017,3 hPa 0,0 l/m 4,8 km/h (1 Bft) NW 315 2 min 0,000 mm 1,0 UV-I 601 W/m 3,0 C 5,3 C 11,3 km/h (2 Bft) 96,23 %
18.04.2017 14:00 4,9 C 86 % 1017,3 hPa 0,2 l/m 10,4 km/h (2 Bft) W-SW 252 0 min 0,178 mm 0,9 UV-I 244 W/m 2,8 C 1,7 C 17,7 km/h (3 Bft) 97,37 %
18.04.2017 14:02 4,4 C 86 % 1017,4 hPa 0,0 l/m 11,9 km/h (2 Bft) W 277 0 min 0,000 mm 1,1 UV-I 323 W/m 2,3 C 0,1 C 22,5 km/h (4 Bft) 100,00 %
18.04.2017 14:04 4,1 C 87 % 1017,3 hPa 0,0 l/m 3,7 km/h (1 Bft) W-NW 286 0 min 0,000 mm 0,9 UV-I 252 W/m 2,1 C 4,1 C 8,0 km/h (2 Bft) 98,00 %
18.04.2017 14:06 3,9 C 89 % 1017,3 hPa 0,0 l/m 8,7 km/h (2 Bft) W-SW 254 0 min 0,000 mm 0,7 UV-I 192 W/m 2,3 C 1,9 C 16,1 km/h (3 Bft) 100,00 %
18.04.2017 14:08 3,7 C 89 % 1017,4 hPa 0,2 l/m 4,3 km/h (1 Bft) W 275 0 min 0,000 mm 0,8 UV-I 211 W/m 2,1 C 3,7 C 12,9 km/h (3 Bft) 97,87 %
18.04.2017 14:10 3,7 C 90 % 1017,5 hPa 0,0 l/m 8,6 km/h (2 Bft) W 270 0 min 0,000 mm 1,3 UV-I 317 W/m 2,2 C 1,7 C 19,3 km/h (3 Bft) 95,45 %
18.04.2017 14:12 3,7 C 90 % 1017,5 hPa 0,0 l/m 8,3 km/h (2 Bft) W-NW 290 0 min 0,000 mm 1,5 UV-I 345 W/m 2,2 C 2,0 C 19,3 km/h (3 Bft) 98,11 %
18.04.2017 14:14 3,7 C 90 % 1017,5 hPa 0,0 l/m 7,2 km/h (2 Bft) W 264 0 min 0,000 mm 1,4 UV-I 313 W/m 2,2 C 3,0 C 14,5 km/h (3 Bft) 97,56 %
18.04.2017 14:16 3,8 C 91 % 1017,5 hPa 0,0 l/m 5,0 km/h (1 Bft) W 279 0 min 0,000 mm 1,4 UV-I 290 W/m 2,5 C 3,8 C 9,7 km/h (2 Bft) 98,00 %
18.04.2017 14:18 3,9 C 91 % 1017,5 hPa 0,0 l/m 5,6 km/h (1 Bft) W 273 0 min 0,000 mm 1,4 UV-I 299 W/m 2,6 C 3,9 C 9,7 km/h (2 Bft) 94,74 %
18.04.2017 14:20 4,0 C 91 % 1017,5 hPa 0,0 l/m 8,3 km/h (2 Bft) N-NW 331 0 min 0,000 mm 1,6 UV-I 349 W/m 2,7 C 2,3 C 17,7 km/h (3 Bft) 100,00 %
18.04.2017 14:22 4,2 C 90 % 1017,5 hPa 0,0 l/m 4,6 km/h (1 Bft) NW 319 2 min 0,000 mm 1,8 UV-I 420 W/m 2,7 C 4,2 C 6,4 km/h (2 Bft) 100,00 %
18.04.2017 14:24 4,4 C 90 % 1017,4 hPa 0,2 l/m 7,6 km/h (2 Bft) W-SW 251 2 min 0,000 mm 1,8 UV-I 427 W/m 2,9 C 3,3 C 14,5 km/h (3 Bft) 98,00 %
18.04.2017 14:26 4,6 C 87 % 1017,4 hPa 0,0 l/m 7,4 km/h (2 Bft) W 270 0 min 0,000 mm 1,7 UV-I 353 W/m 2,6 C 3,7 C 12,9 km/h (3 Bft) 97,44 %
18.04.2017 14:28 4,7 C 86 % 1017,4 hPa 0,0 l/m 7,8 km/h (2 Bft) W-NW 299 0 min 0,000 mm 1,5 UV-I 314 W/m 2,6 C 3,5 C 14,5 km/h (3 Bft) 94,55 %
18.04.2017 14:30 4,8 C 86 % 1017,4 hPa 0,0 l/m 6,2 km/h (2 Bft) N-NW 338 0 min 0,000 mm 1,3 UV-I 264 W/m 2,7 C 4,8 C 12,9 km/h (3 Bft) 98,11 %
18.04.2017 14:32 4,8 C 84 % 1017,4 hPa 0,0 l/m 8,2 km/h (2 Bft) W 261 0 min 0,000 mm 1,3 UV-I 251 W/m 2,3 C 3,2 C 16,1 km/h (3 Bft) 97,73 %
18.04.2017 14:34 4,9 C 85 % 1017,4 hPa 0,0 l/m 5,1 km/h (1 Bft) W 262 0 min 0,000 mm 1,4 UV-I 297 W/m 2,6 C 4,9 C 11,3 km/h (2 Bft) 100,00 %
18.04.2017 14:36 4,9 C 85 % 1017,4 hPa 0,0 l/m 7,0 km/h (2 Bft) W-SW 251 0 min 0,000 mm 1,3 UV-I 264 W/m 2,6 C 4,4 C 12,9 km/h (3 Bft) 100,00 %
18.04.2017 14:38 5,0 C 85 % 1017,4 hPa 0,0 l/m 11,1 km/h (2 Bft) W-NW 282 0 min 0,000 mm 1,3 UV-I 248 W/m 2,7 C 1,3 C 22,5 km/h (4 Bft) 95,35 %
18.04.2017 14:40 5,0 C 86 % 1017,5 hPa 0,0 l/m 5,6 km/h (1 Bft) W-NW 302 0 min 0,000 mm 1,5 UV-I 278 W/m 2,9 C 5,0 C 12,9 km/h (3 Bft) 95,12 %
18.04.2017 14:42 5,0 C 85 % 1017,4 hPa 0,0 l/m 8,2 km/h (2 Bft) W 263 2 min 0,000 mm 2,1 UV-I 463 W/m 2,7 C 3,4 C 16,1 km/h (3 Bft) 100,00 %
18.04.2017 14:44 5,1 C 86 % 1017,5 hPa 0,0 l/m 8,4 km/h (2 Bft) SW 233 2 min 0,000 mm 2,1 UV-I 489 W/m 3,0 C 3,4 C 20,9 km/h (4 Bft) 98,53 %
18.04.2017 14:46 5,2 C 85 % 1017,5 hPa 0,0 l/m 6,4 km/h (2 Bft) W-NW 285 2 min 0,000 mm 1,9 UV-I 461 W/m 2,9 C 5,2 C 17,7 km/h (3 Bft) 96,00 %
18.04.2017 14:48 5,2 C 85 % 1017,5 hPa 0,2 l/m 7,9 km/h (2 Bft) SW 232 0 min 0,000 mm 1,2 UV-I 307 W/m 2,9 C 3,9 C 17,7 km/h (3 Bft) 97,87 %
18.04.2017 14:50 5,3 C 86 % 1017,4 hPa 0,0 l/m 4,2 km/h (1 Bft) N-NO 29 0 min 0,000 mm 1,1 UV-I 264 W/m 3,2 C 5,3 C 8,0 km/h (2 Bft) 93,18 %
18.04.2017 14:52 5,3 C 85 % 1017,4 hPa 0,0 l/m 7,7 km/h (2 Bft) SW 231 0 min 0,000 mm 1,8 UV-I 309 W/m 3,0 C 4,2 C 16,1 km/h (3 Bft) 100,00 %
18.04.2017 14:54 5,5 C 85 % 1017,5 hPa 0,0 l/m 7,7 km/h (2 Bft) W-SW 254 0 min 0,000 mm 2,4 UV-I 309 W/m 3,2 C 4,4 C 19,3 km/h (3 Bft) 100,00 %
18.04.2017 14:56 5,7 C 85 % 1017,4 hPa 0,0 l/m 7,9 km/h (2 Bft) W 267 0 min 0,000 mm 1,8 UV-I 323 W/m 3,4 C 4,4 C 12,9 km/h (3 Bft) 95,71 %
18.04.2017 14:58 5,6 C 83 % 1017,4 hPa 0,0 l/m 10,6 km/h (2 Bft) NW 307 0 min 0,000 mm 1,5 UV-I 309 W/m 2,9 C 2,3 C 19,3 km/h (3 Bft) 97,56 %
18.04.2017 15:00 5,6 C 85 % 1017,4 hPa 0,0 l/m 4,9 km/h (1 Bft) W 269 0 min 0,153 mm 1,3 UV-I 275 W/m 3,3 C 5,6 C 11,3 km/h (2 Bft) 98,11 %
18.04.2017 15:02 5,6 C 84 % 1017,4 hPa 0,0 l/m 7,7 km/h (2 Bft) W 281 0 min 0,000 mm 1,1 UV-I 242 W/m 3,1 C 4,5 C 16,1 km/h (3 Bft) 100,00 %
18.04.2017 15:04 5,4 C 84 % 1017,5 hPa 0,0 l/m 6,3 km/h (2 Bft) S-SW 210 0 min 0,000 mm 0,7 UV-I 163 W/m 2,9 C 5,4 C 14,5 km/h (3 Bft) 97,87 %
18.04.2017 15:06 5,3 C 84 % 1017,6 hPa 0,0 l/m 5,2 km/h (1 Bft) W-SW 254 0 min 0,000 mm 0,2 UV-I 110 W/m 2,8 C 5,3 C 11,3 km/h (2 Bft) 100,00 %
18.04.2017 15:08 5,1 C 85 % 1017,6 hPa 0,0 l/m 7,7 km/h (2 Bft) W 270 0 min 0,000 mm 0,0 UV-I 89 W/m 2,8 C 4,0 C 12,9 km/h (3 Bft) 100,00 %
18.04.2017 15:10 4,9 C 86 % 1017,6 hPa 0,0 l/m 10,1 km/h (2 Bft) W-SW 245 0 min 0,000 mm 0,0 UV-I 84 W/m 2,8 C 1,9 C 16,1 km/h (3 Bft) 97,56 %
18.04.2017 15:12 4,8 C 86 % 1017,7 hPa 0,0 l/m 9,7 km/h (2 Bft) SW 223 0 min 0,000 mm 0,0 UV-I 90 W/m 2,7 C 2,1 C 14,5 km/h (3 Bft) 91,07 %
18.04.2017 15:14 4,6 C 86 % 1017,6 hPa 0,0 l/m 11,8 km/h (2 Bft) S-SW 212 0 min 0,000 mm 0,0 UV-I 100 W/m 2,5 C 0,4 C 19,3 km/h (3 Bft) 97,87 %
18.04.2017 15:16 4,3 C 86 % 1017,9 hPa 0,0 l/m 18,8 km/h (3 Bft) SW 216 0 min 0,000 mm 0,0 UV-I 106 W/m 2,2 C -3,6 C 29,0 km/h (5 Bft) 90,00 %
18.04.2017 15:18 4,1 C 86 % 1017,7 hPa 0,0 l/m 20,4 km/h (4 Bft) SW 224 0 min 0,000 mm 0,0 UV-I 111 W/m 2,0 C -4,5 C 29,0 km/h (5 Bft) 97,37 %
18.04.2017 15:20 3,9 C 86 % 1017,8 hPa 0,0 l/m 20,5 km/h (4 Bft) SW 215 0 min 0,000 mm 0,0 UV-I 108 W/m 1,8 C -4,8 C 32,2 km/h (5 Bft) 98,21 %
18.04.2017 15:22 3,8 C 86 % 1017,8 hPa 0,0 l/m 21,7 km/h (4 Bft) W-SW 242 0 min 0,000 mm 0,0 UV-I 104 W/m 1,7 C -5,4 C 40,2 km/h (6 Bft) 93,18 %
18.04.2017 15:24 3,7 C 85 % 1017,7 hPa 0,0 l/m 24,0 km/h (4 Bft) S 184 0 min 0,000 mm 0,0 UV-I 96 W/m 1,4 C -6,4 C 32,2 km/h (5 Bft) 97,73 %
18.04.2017 15:26 3,7 C 85 % 1017,6 hPa 0,0 l/m 22,7 km/h (4 Bft) S-SW 211 0 min 0,000 mm 0,0 UV-I 95 W/m 1,4 C -5,9 C 40,2 km/h (6 Bft) 92,00 %
18.04.2017 15:28 3,7 C 85 % 1017,7 hPa 0,0 l/m 22,5 km/h (4 Bft) SW 227 0 min 0,000 mm 0,0 UV-I 95 W/m 1,4 C -5,8 C 40,2 km/h (6 Bft) 94,29 %
18.04.2017 15:30 3,7 C 85 % 1017,6 hPa 0,0 l/m 22,1 km/h (4 Bft) S 189 0 min 0,000 mm 0,0 UV-I 96 W/m 1,4 C -5,7 C 38,6 km/h (5 Bft) 94,55 %
18.04.2017 15:32 3,7 C 85 % 1017,7 hPa 0,0 l/m 22,5 km/h (4 Bft) W-SW 243 0 min 0,000 mm 0,0 UV-I 112 W/m 1,4 C -5,8 C 37,0 km/h (5 Bft) 97,56 %
18.04.2017 15:34 3,7 C 85 % 1017,7 hPa 0,0 l/m 22,1 km/h (4 Bft) SW 230 0 min 0,000 mm 0,5 UV-I 141 W/m 1,4 C -5,7 C 35,4 km/h (5 Bft) 95,74 %
18.04.2017 15:36 3,8 C 85 % 1017,7 hPa 0,0 l/m 20,1 km/h (4 Bft) SW 225 0 min 0,000 mm 0,7 UV-I 193 W/m 1,5 C -4,8 C 32,2 km/h (5 Bft) 94,92 %
18.04.2017 15:38 3,8 C 86 % 1017,7 hPa 0,0 l/m 21,3 km/h (4 Bft) S-SW 207 0 min 0,000 mm 0,9 UV-I 240 W/m 1,7 C -5,2 C 30,6 km/h (5 Bft) 92,59 %
18.04.2017 15:40 4,1 C 86 % 1017,7 hPa 0,0 l/m 13,9 km/h (3 Bft) S-SW 207 0 min 0,000 mm 0,8 UV-I 213 W/m 2,0 C -1,4 C 20,9 km/h (4 Bft) 92,45 %
18.04.2017 15:42 4,2 C 85 % 1017,7 hPa 0,0 l/m 18,1 km/h (3 Bft) SW 225 0 min 0,000 mm 0,6 UV-I 155 W/m 1,9 C -3,4 C 25,7 km/h (4 Bft) 94,23 %
18.04.2017 15:44 4,2 C 85 % 1017,7 hPa 0,0 l/m 20,2 km/h (4 Bft) SW 233 0 min 0,000 mm 0,1 UV-I 128 W/m 1,9 C -4,3 C 29,0 km/h (5 Bft) 96,00 %
18.04.2017 15:46 4,1 C 84 % 1017,7 hPa 0,0 l/m 19,0 km/h (3 Bft) SW 221 0 min 0,000 mm 0,6 UV-I 186 W/m 1,6 C -3,9 C 30,6 km/h (5 Bft) 92,31 %
18.04.2017 15:48 4,2 C 85 % 1017,7 hPa 0,0 l/m 18,0 km/h (3 Bft) SW 219 0 min 0,000 mm 0,7 UV-I 210 W/m 1,9 C -3,4 C 27,4 km/h (4 Bft) 96,00 %
18.04.2017 15:50 4,3 C 85 % 1017,7 hPa 0,0 l/m 17,1 km/h (3 Bft) SW 223 0 min 0,000 mm 0,7 UV-I 210 W/m 2,0 C -2,8 C 25,7 km/h (4 Bft) 96,23 %
18.04.2017 15:52 4,3 C 85 % 1017,7 hPa 0,0 l/m 15,1 km/h (3 Bft) SW 228 0 min 0,000 mm 0,6 UV-I 179 W/m 2,0 C -1,8 C 25,7 km/h (4 Bft) 96,00 %
18.04.2017 15:54 4,3 C 86 % 1017,7 hPa 0,0 l/m 17,1 km/h (3 Bft) SW 219 0 min 0,000 mm 0,3 UV-I 140 W/m 2,2 C -2,8 C 24,1 km/h (4 Bft) 97,56 %
18.04.2017 15:56 4,3 C 86 % 1017,8 hPa 0,0 l/m 14,0 km/h (3 Bft) S-SW 211 0 min 0,000 mm 0,7 UV-I 200 W/m 2,2 C -1,2 C 20,9 km/h (4 Bft) 94,34 %
18.04.2017 15:58 4,3 C 86 % 1017,8 hPa 0,0 l/m 13,6 km/h (3 Bft) W-SW 250 0 min 0,000 mm 0,8 UV-I 245 W/m 2,2 C -1,0 C 22,5 km/h (4 Bft) 100,00 %
18.04.2017 16:00 4,3 C 86 % 1017,8 hPa 0,0 l/m 12,8 km/h (3 Bft) SW 230 0 min 0,000 mm 0,8 UV-I 219 W/m 2,2 C -0,5 C 19,3 km/h (3 Bft) 96,00 %
18.04.2017 16:02 4,4 C 86 % 1017,8 hPa 0,0 l/m 15,1 km/h (3 Bft) SW 236 0 min 0,076 mm 0,7 UV-I 184 W/m 2,3 C -1,7 C 19,3 km/h (3 Bft) 92,11 %
18.04.2017 16:04 4,4 C 85 % 1017,8 hPa 0,0 l/m 14,4 km/h (3 Bft) W-SW 244 0 min 0,000 mm 0,6 UV-I 149 W/m 2,1 C -1,3 C 22,5 km/h (4 Bft) 93,22 %
18.04.2017 16:06 4,4 C 85 % 1017,8 hPa 0,0 l/m 14,9 km/h (3 Bft) SW 232 0 min 0,000 mm 0,6 UV-I 154 W/m 2,1 C -1,6 C 22,5 km/h (4 Bft) 97,37 %
18.04.2017 16:08 4,4 C 85 % 1017,8 hPa 0,0 l/m 12,3 km/h (3 Bft) W-SW 243 0 min 0,000 mm 0,7 UV-I 199 W/m 2,1 C -0,1 C 17,7 km/h (3 Bft) 92,68 %
18.04.2017 16:10 4,5 C 85 % 1017,7 hPa 0,0 l/m 14,4 km/h (3 Bft) W-SW 248 0 min 0,000 mm 0,7 UV-I 233 W/m 2,2 C -1,2 C 20,9 km/h (4 Bft) 98,31 %
18.04.2017 16:12 4,6 C 85 % 1017,8 hPa 0,0 l/m 16,3 km/h (3 Bft) W-SW 238 2 min 0,000 mm 0,8 UV-I 330 W/m 2,3 C -2,1 C 20,9 km/h (4 Bft) 95,12 %
18.04.2017 16:14 4,7 C 85 % 1017,8 hPa 0,0 l/m 11,9 km/h (2 Bft) W 264 0 min 0,000 mm 0,9 UV-I 299 W/m 2,4 C 0,5 C 19,3 km/h (3 Bft) 94,00 %
18.04.2017 16:16 4,8 C 85 % 1017,8 hPa 0,0 l/m 9,3 km/h (2 Bft) W 261 0 min 0,000 mm 0,5 UV-I 182 W/m 2,5 C 2,4 C 16,1 km/h (3 Bft) 97,56 %
18.04.2017 16:18 4,8 C 84 % 1017,9 hPa 0,0 l/m 8,9 km/h (2 Bft) W-NW 302 0 min 0,000 mm 0,0 UV-I 165 W/m 2,3 C 2,7 C 14,5 km/h (3 Bft) 95,74 %
18.04.2017 16:20 4,8 C 84 % 1017,9 hPa 0,0 l/m 8,6 km/h (2 Bft) W-SW 258 0 min 0,000 mm 0,0 UV-I 162 W/m 2,3 C 2,9 C 17,7 km/h (3 Bft) 94,64 %
18.04.2017 16:22 4,6 C 85 % 1017,9 hPa 0,0 l/m 6,3 km/h (2 Bft) N 350 0 min 0,000 mm 0,0 UV-I 121 W/m 2,3 C 4,6 C 14,5 km/h (3 Bft) 100,00 %
18.04.2017 16:24 4,3 C 85 % 1017,9 hPa 0,0 l/m 6,1 km/h (2 Bft) N-NW 331 0 min 0,000 mm 0,0 UV-I 94 W/m 2,0 C 4,3 C 14,5 km/h (3 Bft) 92,68 %
18.04.2017 16:26 4,0 C 85 % 1017,9 hPa 0,0 l/m 7,7 km/h (2 Bft) N 351 0 min 0,000 mm 0,0 UV-I 65 W/m 1,7 C 2,8 C 16,1 km/h (3 Bft) 94,64 %
18.04.2017 16:28 3,8 C 86 % 1017,9 hPa 0,0 l/m 7,0 km/h (2 Bft) NW 316 0 min 0,000 mm 0,0 UV-I 62 W/m 1,7 C 3,3 C 14,5 km/h (3 Bft) 97,96 %
18.04.2017 16:30 3,6 C 87 % 1018,0 hPa 0,0 l/m 7,3 km/h (2 Bft) W-NW 302 0 min 0,000 mm 0,0 UV-I 66 W/m 1,6 C 2,8 C 17,7 km/h (3 Bft) 91,67 %
18.04.2017 16:32 3,4 C 87 % 1018,0 hPa 0,0 l/m 6,8 km/h (2 Bft) N-NW 340 0 min 0,000 mm 0,0 UV-I 55 W/m 1,4 C 3,0 C 12,9 km/h (3 Bft) 97,56 %
18.04.2017 16:34 3,3 C 88 % 1018,1 hPa 0,0 l/m 7,5 km/h (2 Bft) W-NW 286 0 min 0,000 mm 0,0 UV-I 42 W/m 1,5 C 2,3 C 17,7 km/h (3 Bft) 95,45 %
18.04.2017 16:36 3,2 C 88 % 1018,1 hPa 0,0 l/m 7,0 km/h (2 Bft) N-NW 328 0 min 0,000 mm 0,0 UV-I 40 W/m 1,4 C 2,6 C 11,3 km/h (2 Bft) 93,18 %
18.04.2017 16:38 2,9 C 88 % 1018,1 hPa 0,0 l/m 7,5 km/h (2 Bft) NW 306 0 min 0,000 mm 0,0 UV-I 38 W/m 1,1 C 1,9 C 16,1 km/h (3 Bft) 95,74 %
18.04.2017 16:40 2,7 C 88 % 1018,1 hPa 0,0 l/m 6,7 km/h (2 Bft) NW 323 0 min 0,000 mm 0,0 UV-I 45 W/m 0,9 C 2,4 C 16,1 km/h (3 Bft) 96,61 %
18.04.2017 16:42 2,5 C 89 % 1018,1 hPa 0,0 l/m 6,7 km/h (2 Bft) N-NW 335 0 min 0,000 mm 0,0 UV-I 56 W/m 0,9 C 2,2 C 12,9 km/h (3 Bft) 92,68 %
18.04.2017 16:44 2,5 C 90 % 1018,2 hPa 0,0 l/m 4,3 km/h (1 Bft) NW 325 0 min 0,000 mm 0,0 UV-I 73 W/m 1,0 C 2,5 C 8,0 km/h (2 Bft) 94,00 %
18.04.2017 16:46 2,4 C 91 % 1018,2 hPa 0,0 l/m 7,5 km/h (2 Bft) N-NW 327 0 min 0,000 mm 0,0 UV-I 92 W/m 1,1 C 1,3 C 12,9 km/h (3 Bft) 100,00 %
18.04.2017 16:48 2,6 C 91 % 1018,3 hPa 0,0 l/m 7,5 km/h (2 Bft) N-NW 330 0 min 0,000 mm 0,0 UV-I 118 W/m 1,3 C 1,5 C 12,9 km/h (3 Bft) 95,59 %
18.04.2017 16:50 2,7 C 92 % 1018,3 hPa 0,0 l/m 8,8 km/h (2 Bft) N-NW 344 0 min 0,000 mm 0,5 UV-I 138 W/m 1,5 C 0,5 C 16,1 km/h (3 Bft) 97,56 %
18.04.2017 16:52 2,8 C 92 % 1018,3 hPa 0,0 l/m 7,4 km/h (2 Bft) N-NW 342 0 min 0,000 mm 0,1 UV-I 126 W/m 1,6 C 1,8 C 14,5 km/h (3 Bft) 98,00 %
18.04.2017 16:54 2,8 C 92 % 1018,3 hPa 0,0 l/m 8,2 km/h (2 Bft) NW 307 0 min 0,000 mm 0,0 UV-I 101 W/m 1,6 C 1,1 C 14,5 km/h (3 Bft) 98,11 %
18.04.2017 16:56 2,9 C 92 % 1018,3 hPa 0,0 l/m 7,2 km/h (2 Bft) NW 321 0 min 0,000 mm 0,0 UV-I 86 W/m 1,7 C 2,1 C 17,7 km/h (3 Bft) 97,73 %
18.04.2017 16:58 3,0 C 92 % 1018,3 hPa 0,0 l/m 8,4 km/h (2 Bft) N-NW 333 0 min 0,000 mm 0,0 UV-I 73 W/m 1,8 C 1,2 C 14,5 km/h (3 Bft) 98,00 %
18.04.2017 17:00 3,0 C 92 % 1018,4 hPa 0,0 l/m 7,1 km/h (2 Bft) N-NW 332 0 min 0,051 mm 0,0 UV-I 58 W/m 1,8 C 2,3 C 14,5 km/h (3 Bft) 100,00 %
18.04.2017 17:02 3,1 C 92 % 1018,4 hPa 0,2 l/m 4,2 km/h (1 Bft) N 355 0 min 0,000 mm 0,0 UV-I 57 W/m 1,9 C 3,1 C 9,7 km/h (2 Bft) 94,00 %
18.04.2017 17:04 3,1 C 92 % 1018,4 hPa 0,0 l/m 3,9 km/h (1 Bft) NW 325 0 min 0,000 mm 0,0 UV-I 66 W/m 1,9 C 3,1 C 8,0 km/h (2 Bft) 95,24 %
18.04.2017 17:06 3,1 C 92 % 1018,5 hPa 0,2 l/m 5,0 km/h (1 Bft) W 271 0 min 0,000 mm 0,0 UV-I 76 W/m 1,9 C 3,1 C 11,3 km/h (2 Bft) 100,00 %
18.04.2017 17:08 3,2 C 92 % 1018,5 hPa 0,0 l/m 4,4 km/h (1 Bft) W-NW 303 0 min 0,000 mm 0,0 UV-I 95 W/m 2,0 C 3,2 C 8,0 km/h (2 Bft) 95,45 %
18.04.2017 17:10 3,2 C 92 % 1018,5 hPa 0,0 l/m 6,4 km/h (2 Bft) W-SW 244 0 min 0,000 mm 0,0 UV-I 112 W/m 2,0 C 3,2 C 11,3 km/h (2 Bft) 93,18 %
18.04.2017 17:12 3,2 C 93 % 1018,5 hPa 0,0 l/m 9,5 km/h (2 Bft) W-SW 257 0 min 0,000 mm 0,0 UV-I 108 W/m 2,2 C 0,5 C 14,5 km/h (3 Bft) 98,21 %
18.04.2017 17:14 3,2 C 92 % 1018,5 hPa 0,0 l/m 6,4 km/h (2 Bft) W-SW 248 0 min 0,000 mm 0,0 UV-I 116 W/m 2,0 C 3,2 C 11,3 km/h (2 Bft) 97,73 %
18.04.2017 17:16 3,2 C 92 % 1018,5 hPa 0,0 l/m 3,8 km/h (1 Bft) W 262 0 min 0,000 mm 0,0 UV-I 124 W/m 2,0 C 3,2 C 6,4 km/h (2 Bft) 97,37 %
18.04.2017 17:18 3,2 C 93 % 1018,5 hPa 0,0 l/m 5,6 km/h (1 Bft) W-SW 257 0 min 0,000 mm 0,0 UV-I 146 W/m 2,2 C 3,2 C 11,3 km/h (2 Bft) 98,33 %
18.04.2017 17:20 3,3 C 93 % 1018,5 hPa 0,0 l/m 5,5 km/h (1 Bft) W 279 0 min 0,000 mm 0,0 UV-I 165 W/m 2,3 C 3,3 C 9,7 km/h (2 Bft) 96,00 %
18.04.2017 17:22 3,3 C 92 % 1018,5 hPa 0,0 l/m 9,5 km/h (2 Bft) W 275 0 min 0,000 mm 0,0 UV-I 174 W/m 2,1 C 0,6 C 14,5 km/h (3 Bft) 97,14 %
18.04.2017 17:24 3,3 C 92 % 1018,5 hPa 0,0 l/m 7,1 km/h (2 Bft) W-SW 248 0 min 0,000 mm 0,0 UV-I 174 W/m 2,1 C 2,6 C 9,7 km/h (2 Bft) 94,34 %
18.04.2017 17:26 3,3 C 92 % 1018,5 hPa 0,0 l/m 5,0 km/h (1 Bft) W 279 0 min 0,000 mm 0,0 UV-I 162 W/m 2,1 C 3,3 C 9,7 km/h (2 Bft) 100,00 %
18.04.2017 17:28 3,3 C 92 % 1018,5 hPa 0,0 l/m 8,4 km/h (2 Bft) W 274 0 min 0,000 mm 0,0 UV-I 144 W/m 2,1 C 1,5 C 14,5 km/h (3 Bft) 91,07 %
18.04.2017 17:30 3,4 C 92 % 1018,6 hPa 0,0 l/m 9,0 km/h (2 Bft) W-SW 254 0 min 0,000 mm 0,0 UV-I 139 W/m 2,2 C 1,1 C 14,5 km/h (3 Bft) 92,00 %
18.04.2017 17:32 3,4 C 92 % 1018,6 hPa 0,0 l/m 7,5 km/h (2 Bft) W-SW 248 0 min 0,000 mm 0,0 UV-I 141 W/m 2,2 C 2,4 C 11,3 km/h (2 Bft) 92,11 %
18.04.2017 17:34 3,6 C 92 % 1018,6 hPa 0,0 l/m 5,6 km/h (1 Bft) W 263 0 min 0,000 mm 0,0 UV-I 153 W/m 2,4 C 3,6 C 8,0 km/h (2 Bft) 97,73 %
18.04.2017 17:36 3,7 C 93 % 1018,6 hPa 0,0 l/m 4,9 km/h (1 Bft) W 269 0 min 0,000 mm 0,0 UV-I 173 W/m 2,7 C 3,7 C 6,4 km/h (2 Bft) 96,61 %
18.04.2017 17:38 3,7 C 92 % 1018,6 hPa 0,0 l/m 7,1 km/h (2 Bft) W-SW 247 0 min 0,000 mm 0,0 UV-I 188 W/m 2,5 C 3,1 C 11,3 km/h (2 Bft) 97,37 %
18.04.2017 17:40 3,8 C 92 % 1018,6 hPa 0,0 l/m 7,4 km/h (2 Bft) W 268 0 min 0,000 mm 0,0 UV-I 194 W/m 2,6 C 2,9 C 12,9 km/h (3 Bft) 96,00 %
18.04.2017 17:42 3,8 C 92 % 1018,6 hPa 0,0 l/m 7,8 km/h (2 Bft) W 273 0 min 0,000 mm 0,0 UV-I 201 W/m 2,6 C 2,5 C 14,5 km/h (3 Bft) 96,00 %
18.04.2017 17:44 3,9 C 91 % 1018,7 hPa 0,0 l/m 10,8 km/h (2 Bft) W 263 2 min 0,000 mm 0,0 UV-I 214 W/m 2,6 C 0,3 C 14,5 km/h (3 Bft) 97,44 %
18.04.2017 17:46 3,9 C 90 % 1018,7 hPa 0,0 l/m 9,0 km/h (2 Bft) W-SW 258 2 min 0,000 mm 0,0 UV-I 225 W/m 2,4 C 1,6 C 12,9 km/h (3 Bft) 96,36 %
18.04.2017 17:48 3,9 C 90 % 1018,8 hPa 0,0 l/m 4,5 km/h (1 Bft) W 273 2 min 0,000 mm 0,0 UV-I 239 W/m 2,4 C 3,9 C 9,7 km/h (2 Bft) 95,56 %
18.04.2017 17:50 4,0 C 90 % 1018,8 hPa 0,0 l/m 6,6 km/h (2 Bft) W-NW 291 2 min 0,000 mm 0,0 UV-I 203 W/m 2,5 C 3,8 C 11,3 km/h (2 Bft) 100,00 %
18.04.2017 17:52 4,1 C 89 % 1018,8 hPa 0,0 l/m 6,1 km/h (2 Bft) SW 236 0 min 0,000 mm 0,0 UV-I 181 W/m 2,5 C 4,1 C 11,3 km/h (2 Bft) 95,12 %
18.04.2017 17:54 4,2 C 90 % 1018,9 hPa 0,0 l/m 4,7 km/h (1 Bft) SW 228 0 min 0,000 mm 0,0 UV-I 168 W/m 2,7 C 4,2 C 6,4 km/h (2 Bft) 95,45 %
18.04.2017 17:56 4,2 C 89 % 1018,9 hPa 0,0 l/m 5,5 km/h (1 Bft) SW 234 0 min 0,000 mm 0,0 UV-I 162 W/m 2,6 C 4,2 C 8,0 km/h (2 Bft) 96,00 %
18.04.2017 17:58 4,2 C 89 % 1018,9 hPa 0,0 l/m 8,9 km/h (2 Bft) W-SW 248 0 min 0,000 mm 0,0 UV-I 149 W/m 2,6 C 2,0 C 14,5 km/h (3 Bft) 100,00 %
18.04.2017 18:00 4,2 C 88 % 1018,9 hPa 0,0 l/m 12,8 km/h (3 Bft) W 280 0 min 0,000 mm 0,0 UV-I 133 W/m 2,4 C -0,7 C 17,7 km/h (3 Bft) 87,23 %
18.04.2017 18:02 4,2 C 88 % 1018,9 hPa 0,0 l/m 6,8 km/h (2 Bft) W-SW 241 0 min 0,050 mm 0,0 UV-I 121 W/m 2,4 C 3,8 C 11,3 km/h (2 Bft) 97,56 %
18.04.2017 18:04 4,2 C 88 % 1018,9 hPa 0,0 l/m 5,9 km/h (2 Bft) W-NW 284 0 min 0,000 mm 0,0 UV-I 118 W/m 2,4 C 4,2 C 11,3 km/h (2 Bft) 96,23 %
18.04.2017 18:06 4,2 C 88 % 1018,9 hPa 0,0 l/m 8,6 km/h (2 Bft) W-SW 244 0 min 0,000 mm 0,0 UV-I 110 W/m 2,4 C 2,3 C 14,5 km/h (3 Bft) 95,12 %
18.04.2017 18:08 4,2 C 89 % 1018,9 hPa 0,0 l/m 10,0 km/h (2 Bft) W 267 0 min 0,000 mm 0,0 UV-I 90 W/m 2,6 C 1,2 C 14,5 km/h (3 Bft) 96,23 %
18.04.2017 18:10 4,2 C 89 % 1018,9 hPa 0,0 l/m 8,2 km/h (2 Bft) W 274 0 min 0,000 mm 0,0 UV-I 78 W/m 2,6 C 2,6 C 12,9 km/h (3 Bft) 94,00 %
18.04.2017 18:12 4,1 C 88 % 1018,9 hPa 0,0 l/m 9,7 km/h (2 Bft) W-SW 248 0 min 0,000 mm 0,0 UV-I 59 W/m 2,3 C 1,3 C 16,1 km/h (3 Bft) 95,74 %
18.04.2017 18:14 4,1 C 88 % 1018,9 hPa 0,0 l/m 10,8 km/h (2 Bft) SW 232 0 min 0,000 mm 0,0 UV-I 59 W/m 2,3 C 0,5 C 14,5 km/h (3 Bft) 94,00 %
18.04.2017 18:16 4,1 C 88 % 1019,0 hPa 0,0 l/m 14,0 km/h (3 Bft) W 270 0 min 0,000 mm 0,0 UV-I 61 W/m 2,3 C -1,5 C 17,7 km/h (3 Bft) 94,29 %
18.04.2017 18:18 4,0 C 88 % 1018,9 hPa 0,0 l/m 10,4 km/h (2 Bft) W 277 0 min 0,000 mm 0,0 UV-I 66 W/m 2,2 C 0,7 C 16,1 km/h (3 Bft) 100,00 %
18.04.2017 18:20 4,0 C 88 % 1018,9 hPa 0,0 l/m 11,9 km/h (2 Bft) W 271 0 min 0,000 mm 0,0 UV-I 67 W/m 2,2 C -0,3 C 16,1 km/h (3 Bft) 98,11 %
18.04.2017 18:22 4,0 C 88 % 1019,0 hPa 0,0 l/m 9,9 km/h (2 Bft) W 261 0 min 0,000 mm 0,0 UV-I 73 W/m 2,2 C 1,0 C 14,5 km/h (3 Bft) 97,87 %
18.04.2017 18:24 3,9 C 88 % 1018,9 hPa 0,0 l/m 10,3 km/h (2 Bft) W 260 0 min 0,000 mm 0,0 UV-I 79 W/m 2,1 C 0,6 C 16,1 km/h (3 Bft) 97,87 %
18.04.2017 18:26 3,9 C 88 % 1019,0 hPa 0,0 l/m 6,9 km/h (2 Bft) W 268 0 min 0,000 mm 0,0 UV-I 82 W/m 2,1 C 3,4 C 12,9 km/h (3 Bft) 97,44 %
18.04.2017 18:28 3,9 C 88 % 1019,0 hPa 0,0 l/m 8,3 km/h (2 Bft) W-SW 240 0 min 0,000 mm 0,0 UV-I 88 W/m 2,1 C 2,2 C 14,5 km/h (3 Bft) 94,00 %
18.04.2017 18:30 3,9 C 87 % 1019,0 hPa 0,0 l/m 9,6 km/h (2 Bft) W-SW 243 0 min 0,000 mm 0,0 UV-I 88 W/m 1,9 C 1,2 C 12,9 km/h (3 Bft) 94,00 %
18.04.2017 18:32 3,9 C 87 % 1019,1 hPa 0,0 l/m 6,4 km/h (2 Bft) W 266 0 min 0,000 mm 0,0 UV-I 83 W/m 1,9 C 3,9 C 9,7 km/h (2 Bft) 97,37 %
18.04.2017 18:34 3,9 C 87 % 1019,1 hPa 0,0 l/m 7,5 km/h (2 Bft) W-SW 240 0 min 0,000 mm 0,0 UV-I 87 W/m 1,9 C 2,9 C 14,5 km/h (3 Bft) 94,00 %
18.04.2017 18:36 4,0 C 87 % 1019,1 hPa 0,0 l/m 6,5 km/h (2 Bft) W-SW 251 0 min 0,000 mm 0,0 UV-I 87 W/m 2,0 C 3,9 C 11,3 km/h (2 Bft) 98,00 %
18.04.2017 18:38 4,0 C 88 % 1019,1 hPa 0,0 l/m 6,8 km/h (2 Bft) W 261 0 min 0,000 mm 0,0 UV-I 85 W/m 2,2 C 3,6 C 12,9 km/h (3 Bft) 100,00 %
18.04.2017 18:40 4,0 C 87 % 1019,2 hPa 0,0 l/m 7,1 km/h (2 Bft) W-SW 252 0 min 0,000 mm 0,0 UV-I 83 W/m 2,0 C 3,4 C 12,9 km/h (3 Bft) 100,00 %
18.04.2017 18:42 4,1 C 87 % 1019,2 hPa 0,0 l/m 8,7 km/h (2 Bft) W-NW 282 0 min 0,000 mm 0,0 UV-I 84 W/m 2,1 C 2,1 C 12,9 km/h (3 Bft) 98,00 %
18.04.2017 18:44 4,1 C 87 % 1019,1 hPa 0,0 l/m 9,9 km/h (2 Bft) W 279 0 min 0,000 mm 0,0 UV-I 91 W/m 2,1 C 1,2 C 16,1 km/h (3 Bft) 100,00 %
18.04.2017 18:46 4,1 C 87 % 1019,1 hPa 0,0 l/m 8,7 km/h (2 Bft) W-NW 282 2 min 0,000 mm 0,0 UV-I 106 W/m 2,1 C 2,1 C 16,1 km/h (3 Bft) 100,00 %
18.04.2017 18:48 4,1 C 87 % 1019,2 hPa 0,0 l/m 10,7 km/h (2 Bft) W 262 2 min 0,000 mm 0,0 UV-I 119 W/m 2,1 C 0,6 C 16,1 km/h (3 Bft) 100,00 %
18.04.2017 18:50 4,2 C 87 % 1019,2 hPa 0,0 l/m 10,1 km/h (2 Bft) W-NW 288 2 min 0,000 mm 0,0 UV-I 130 W/m 2,2 C 1,1 C 16,1 km/h (3 Bft) 95,08 %
18.04.2017 18:52 4,2 C 87 % 1019,2 hPa 0,0 l/m 8,7 km/h (2 Bft) W-SW 252 2 min 0,000 mm 0,0 UV-I 112 W/m 2,2 C 2,2 C 12,9 km/h (3 Bft) 93,18 %
18.04.2017 18:54 4,3 C 87 % 1019,3 hPa 0,0 l/m 8,4 km/h (2 Bft) W-NW 284 0 min 0,000 mm 0,0 UV-I 69 W/m 2,3 C 2,5 C 16,1 km/h (3 Bft) 100,00 %
18.04.2017 18:56 4,3 C 86 % 1019,2 hPa 0,0 l/m 12,1 km/h (2 Bft) W 275 0 min 0,000 mm 0,0 UV-I 55 W/m 2,2 C -0,1 C 22,5 km/h (4 Bft) 97,87 %
18.04.2017 18:58 4,2 C 86 % 1019,2 hPa 0,0 l/m 12,4 km/h (3 Bft) SW 233 0 min 0,000 mm 0,0 UV-I 53 W/m 2,1 C -0,4 C 22,5 km/h (4 Bft) 100,00 %
18.04.2017 19:00 4,2 C 86 % 1019,3 hPa 0,0 l/m 8,8 km/h (2 Bft) SW 215 0 min 0,051 mm 0,0 UV-I 59 W/m 2,1 C 2,1 C 17,7 km/h (3 Bft) 97,56 %
18.04.2017 19:02 4,2 C 86 % 1019,4 hPa 0,0 l/m 4,9 km/h (1 Bft) W-NW 297 0 min 0,000 mm 0,0 UV-I 50 W/m 2,1 C 4,2 C 11,3 km/h (2 Bft) 100,00 %
18.04.2017 19:04 4,2 C 87 % 1019,5 hPa 0,0 l/m 5,3 km/h (1 Bft) N 9 0 min 0,000 mm 0,0 UV-I 39 W/m 2,2 C 4,2 C 9,7 km/h (2 Bft) 100,00 %
18.04.2017 19:06 4,1 C 86 % 1019,6 hPa 0,0 l/m 7,5 km/h (2 Bft) NW 319 0 min 0,000 mm 0,0 UV-I 28 W/m 2,0 C 3,1 C 19,3 km/h (3 Bft) 100,00 %
18.04.2017 19:08 3,7 C 86 % 1019,7 hPa 0,0 l/m 6,7 km/h (2 Bft) N-NO 31 0 min 0,000 mm 0,0 UV-I 19 W/m 1,6 C 3,4 C 16,1 km/h (3 Bft) 95,74 %
18.04.2017 19:10 3,3 C 86 % 1019,6 hPa 0,0 l/m 7,2 km/h (2 Bft) NW 313 0 min 0,000 mm 0,0 UV-I 12 W/m 1,2 C 2,5 C 19,3 km/h (3 Bft) 97,44 %
18.04.2017 19:12 2,9 C 87 % 1019,7 hPa 0,2 l/m 3,7 km/h (1 Bft) NW 313 0 min 0,000 mm 0,0 UV-I 9 W/m 1,0 C 2,9 C 8,0 km/h (2 Bft) 97,87 %
18.04.2017 19:14 2,5 C 88 % 1019,8 hPa 0,0 l/m 6,9 km/h (2 Bft) N-NW 329 0 min 0,000 mm 0,0 UV-I 7 W/m 0,7 C 2,0 C 16,1 km/h (3 Bft) 96,00 %
18.04.2017 19:16 2,2 C 88 % 1019,8 hPa 0,0 l/m 5,7 km/h (1 Bft) N-NW 347 0 min 0,000 mm 0,0 UV-I 7 W/m 0,4 C 2,2 C 12,9 km/h (3 Bft) 96,00 %
18.04.2017 19:18 1,8 C 89 % 1019,8 hPa 0,0 l/m 4,6 km/h (1 Bft) N-NW 336 0 min 0,000 mm 0,0 UV-I 7 W/m 0,2 C 1,8 C 9,7 km/h (2 Bft) 97,87 %
18.04.2017 19:20 1,6 C 90 % 1019,8 hPa 0,0 l/m 3,5 km/h (1 Bft) N-NW 338 0 min 0,000 mm 0,0 UV-I 7 W/m 0,1 C 1,6 C 12,9 km/h (3 Bft) 92,68 %
18.04.2017 19:22 1,3 C 90 % 1019,9 hPa 0,0 l/m 3,3 km/h (1 Bft) N-NO 28 0 min 0,000 mm 0,0 UV-I 6 W/m -0,2 C 1,3 C 6,4 km/h (2 Bft) 98,11 %
18.04.2017 19:24 1,1 C 91 % 1019,9 hPa 0,0 l/m 2,7 km/h (1 Bft) N 9 0 min 0,000 mm 0,0 UV-I 7 W/m -0,2 C 1,1 C 6,4 km/h (2 Bft) 97,37 %
18.04.2017 19:26 0,9 C 92 % 1019,9 hPa 0,0 l/m 2,0 km/h (1 Bft) N-NO 26 0 min 0,000 mm 0,0 UV-I 7 W/m -0,2 C 0,9 C 4,8 km/h (1 Bft) 96,00 %
18.04.2017 19:28 0,8 C 92 % 1019,9 hPa 0,0 l/m 4,9 km/h (1 Bft) N 5 0 min 0,000 mm 0,0 UV-I 7 W/m -0,3 C 0,8 C 8,0 km/h (2 Bft) 93,62 %
18.04.2017 19:30 0,7 C 92 % 1019,9 hPa 0,0 l/m 3,4 km/h (1 Bft) N-NO 21 0 min 0,000 mm 0,0 UV-I 7 W/m -0,4 C 0,7 C 8,0 km/h (2 Bft) 96,00 %
18.04.2017 19:32 0,7 C 93 % 1019,9 hPa 0,0 l/m 2,1 km/h (1 Bft) N 5 0 min 0,000 mm 0,0 UV-I 7 W/m -0,3 C 0,7 C 4,8 km/h (1 Bft) 92,68 %
18.04.2017 19:34 0,7 C 93 % 1019,9 hPa 0,0 l/m 0,3 km/h (0 Bft) N 5 0 min 0,000 mm 0,0 UV-I 7 W/m -0,3 C 0,7 C 1,6 km/h (1 Bft) 96,23 %
18.04.2017 19:36 0,6 C 93 % 1019,9 hPa 0,0 l/m 0,3 km/h (0 Bft) N 5 0 min 0,000 mm 0,0 UV-I 5 W/m -0,4 C 0,6 C 1,6 km/h (1 Bft) 95,74 %
18.04.2017 19:38 0,6 C 94 % 1019,9 hPa 0,0 l/m 0,8 km/h (0 Bft) N 5 0 min 0,000 mm 0,0 UV-I 5 W/m -0,3 C 0,6 C 1,6 km/h (1 Bft) 96,00 %
18.04.2017 19:40 0,7 C 94 % 1019,9 hPa 0,0 l/m 0,3 km/h (0 Bft) N 5 0 min 0,000 mm 0,0 UV-I 6 W/m -0,2 C 0,7 C 1,6 km/h (1 Bft) 95,45 %
18.04.2017 19:42 0,7 C 94 % 1019,9 hPa 0,0 l/m 1,0 km/h (0 Bft) N-NO 18 0 min 0,000 mm 0,0 UV-I 7 W/m -0,2 C 0,7 C 3,2 km/h (1 Bft) 96,00 %
18.04.2017 19:44 0,7 C 94 % 1019,9 hPa 0,0 l/m 2,9 km/h (1 Bft) N-NO 26 0 min 0,000 mm 0,0 UV-I 7 W/m -0,2 C 0,7 C 4,8 km/h (1 Bft) 97,22 %
18.04.2017 19:46 0,7 C 94 % 1019,9 hPa 0,0 l/m 1,4 km/h (1 Bft) N-NO 26 0 min 0,000 mm 0,0 UV-I 7 W/m -0,2 C 0,7 C 3,2 km/h (1 Bft) 95,74 %
18.04.2017 19:48 0,7 C 94 % 1020,0 hPa 0,0 l/m 1,7 km/h (1 Bft) N-NO 26 0 min 0,000 mm 0,0 UV-I 7 W/m -0,2 C 0,7 C 3,2 km/h (1 Bft) 95,74 %
18.04.2017 19:50 0,7 C 94 % 1020,0 hPa 0,0 l/m 0,1 km/h (0 Bft) N-NO 26 0 min 0,000 mm 0,0 UV-I 7 W/m -0,2 C 0,7 C 1,6 km/h (1 Bft) 96,43 %
18.04.2017 19:52 0,7 C 95 % 1020,0 hPa 0,0 l/m 0,0 km/h (0 Bft) N-NO 26 0 min 0,000 mm 0,0 UV-I 5 W/m -0,0 C 0,7 C 0,0 km/h (0 Bft) 95,74 %
18.04.2017 19:54 0,7 C 95 % 1020,0 hPa 0,0 l/m 0,0 km/h (0 Bft) N-NO 26 0 min 0,000 mm 0,0 UV-I 5 W/m -0,0 C 0,7 C 0,0 km/h (0 Bft) 100,00 %
18.04.2017 19:56 0,8 C 95 % 1020,0 hPa 0,0 l/m 0,0 km/h (0 Bft) N-NO 26 0 min 0,000 mm 0,0 UV-I 5 W/m 0,1 C 0,8 C 1,6 km/h (1 Bft) 98,00 %
18.04.2017 19:58 0,8 C 95 % 1020,0 hPa 0,0 l/m 2,7 km/h (1 Bft) N 10 0 min 0,000 mm 0,0 UV-I 5 W/m 0,1 C 0,8 C 3,2 km/h (1 Bft) 96,00 %
18.04.2017 20:00 0,8 C 95 % 1020,1 hPa 0,0 l/m 3,4 km/h (1 Bft) N 10 0 min 0,000 mm 0,0 UV-I 5 W/m 0,1 C 0,8 C 4,8 km/h (1 Bft) 96,00 %
18.04.2017 20:02 0,8 C 95 % 1020,1 hPa 0,0 l/m 1,6 km/h (1 Bft) N 10 0 min 0,000 mm 0,0 UV-I 5 W/m 0,1 C 0,8 C 3,2 km/h (1 Bft) 97,56 %
18.04.2017 20:04 0,8 C 95 % 1020,1 hPa 0,0 l/m 1,5 km/h (1 Bft) N 10 0 min 0,000 mm 0,0 UV-I 5 W/m 0,1 C 0,8 C 4,8 km/h (1 Bft) 97,73 %
18.04.2017 20:06 0,8 C 95 % 1020,2 hPa 0,0 l/m 2,7 km/h (1 Bft) N 9 0 min 0,000 mm 0,0 UV-I 5 W/m 0,1 C 0,8 C 4,8 km/h (1 Bft) 98,00 %
18.04.2017 20:08 0,8 C 95 % 1020,1 hPa 0,0 l/m 1,4 km/h (1 Bft) NO 35 0 min 0,000 mm 0,0 UV-I 0 W/m 0,1 C 0,8 C 4,8 km/h (1 Bft) 97,87 %
18.04.2017 20:10 0,8 C 95 % 1020,2 hPa 0,0 l/m 3,5 km/h (1 Bft) NO 35 0 min 0,000 mm 0,0 UV-I 0 W/m 0,1 C 0,8 C 4,8 km/h (1 Bft) 93,62 %
18.04.2017 20:12 0,9 C 95 % 1020,3 hPa 0,0 l/m 4,1 km/h (1 Bft) NO 36 0 min 0,000 mm 0,0 UV-I 0 W/m 0,2 C 0,9 C 6,4 km/h (2 Bft) 94,00 %
18.04.2017 20:14 0,9 C 95 % 1020,4 hPa 0,0 l/m 4,6 km/h (1 Bft) S-SW 198 0 min 0,000 mm 0,0 UV-I 0 W/m 0,2 C 0,9 C 6,4 km/h (2 Bft) 96,00 %
18.04.2017 20:16 0,9 C 95 % 1020,3 hPa 0,0 l/m 5,3 km/h (1 Bft) S 186 0 min 0,000 mm 0,0 UV-I 0 W/m 0,2 C 0,9 C 9,7 km/h (2 Bft) 97,14 %
18.04.2017 20:18 0,9 C 95 % 1020,3 hPa 0,0 l/m 3,4 km/h (1 Bft) S 188 0 min 0,000 mm 0,0 UV-I 0 W/m 0,2 C 0,9 C 6,4 km/h (2 Bft) 96,61 %
18.04.2017 20:20 0,9 C 95 % 1020,3 hPa 0,0 l/m 2,3 km/h (1 Bft) S 175 0 min 0,000 mm 0,0 UV-I 0 W/m 0,2 C 0,9 C 4,8 km/h (1 Bft) 97,44 %
18.04.2017 20:22 0,9 C 95 % 1020,3 hPa 0,0 l/m 2,9 km/h (1 Bft) S-SO 167 0 min 0,000 mm 0,0 UV-I 0 W/m 0,2 C 0,9 C 6,4 km/h (2 Bft) 96,15 %
18.04.2017 20:24 0,9 C 95 % 1020,3 hPa 0,0 l/m 2,2 km/h (1 Bft) S-SO 160 0 min 0,000 mm 0,0 UV-I 0 W/m 0,2 C 0,9 C 4,8 km/h (1 Bft) 97,87 %
18.04.2017 20:26 0,9 C 95 % 1020,4 hPa 0,0 l/m 3,7 km/h (1 Bft) S 177 0 min 0,000 mm 0,0 UV-I 0 W/m 0,2 C 0,9 C 6,4 km/h (2 Bft) 96,00 %
18.04.2017 20:28 0,9 C 95 % 1020,4 hPa 0,0 l/m 2,6 km/h (1 Bft) S 177 0 min 0,000 mm 0,0 UV-I 0 W/m 0,2 C 0,9 C 6,4 km/h (2 Bft) 97,44 %
18.04.2017 20:30 0,9 C 96 % 1020,4 hPa 0,0 l/m 3,8 km/h (1 Bft) S 178 0 min 0,000 mm 0,0 UV-I 0 W/m 0,3 C 0,9 C 8,0 km/h (2 Bft) 96,43 %
18.04.2017 20:32 0,9 C 95 % 1020,5 hPa 0,0 l/m 4,3 km/h (1 Bft) S 189 0 min 0,000 mm 0,0 UV-I 0 W/m 0,2 C 0,9 C 6,4 km/h (2 Bft) 95,12 %
18.04.2017 20:34 0,9 C 96 % 1020,5 hPa 0,0 l/m 4,7 km/h (1 Bft) S 188 0 min 0,000 mm 0,0 UV-I 0 W/m 0,3 C 0,9 C 8,0 km/h (2 Bft) 98,00 %
18.04.2017 20:36 0,9 C 96 % 1020,5 hPa 0,0 l/m 5,8 km/h (2 Bft) S-SW 205 0 min 0,000 mm 0,0 UV-I 0 W/m 0,3 C 0,9 C 8,0 km/h (2 Bft) 98,00 %
18.04.2017 20:38 0,9 C 96 % 1020,5 hPa 0,0 l/m 5,2 km/h (1 Bft) S-SW 205 0 min 0,000 mm 0,0 UV-I 0 W/m 0,3 C 0,9 C 8,0 km/h (2 Bft) 97,37 %
18.04.2017 20:40 0,9 C 96 % 1020,5 hPa 0,0 l/m 3,0 km/h (1 Bft) S-SW 205 0 min 0,000 mm 0,0 UV-I 0 W/m 0,3 C 0,9 C 4,8 km/h (1 Bft) 96,00 %
18.04.2017 20:42 0,9 C 96 % 1020,6 hPa 0,0 l/m 3,5 km/h (1 Bft) S-SW 205 0 min 0,000 mm 0,0 UV-I 0 W/m 0,3 C 0,9 C 6,4 km/h (2 Bft) 96,08 %
18.04.2017 20:44 0,9 C 96 % 1020,6 hPa 0,0 l/m 3,0 km/h (1 Bft) S-SW 205 0 min 0,000 mm 0,0 UV-I 0 W/m 0,3 C 0,9 C 4,8 km/h (1 Bft) 100,00 %
18.04.2017 20:46 0,9 C 96 % 1020,6 hPa 0,0 l/m 4,4 km/h (1 Bft) S-SW 205 0 min 0,000 mm 0,0 UV-I 0 W/m 0,3 C 0,9 C 6,4 km/h (2 Bft) 98,11 %
18.04.2017 20:48 1,0 C 96 % 1020,6 hPa 0,0 l/m 4,0 km/h (1 Bft) S-SW 205 0 min 0,000 mm 0,0 UV-I 0 W/m 0,4 C 1,0 C 6,4 km/h (2 Bft) 98,00 %
18.04.2017 20:50 1,0 C 96 % 1020,7 hPa 0,0 l/m 5,3 km/h (1 Bft) S-SW 205 0 min 0,000 mm 0,0 UV-I 0 W/m 0,4 C 1,0 C 8,0 km/h (2 Bft) 100,00 %
18.04.2017 20:52 1,0 C 96 % 1020,7 hPa 0,0 l/m 5,3 km/h (1 Bft) S-SW 205 0 min 0,000 mm 0,0 UV-I 0 W/m 0,4 C 1,0 C 9,7 km/h (2 Bft) 98,51 %
18.04.2017 20:54 1,1 C 96 % 1020,7 hPa 0,0 l/m 5,8 km/h (2 Bft) S-SW 206 0 min 0,000 mm 0,0 UV-I 0 W/m 0,5 C 1,1 C 8,0 km/h (2 Bft) 97,87 %
18.04.2017 20:56 1,1 C 96 % 1020,7 hPa 0,0 l/m 4,8 km/h (1 Bft) S-SW 206 0 min 0,000 mm 0,0 UV-I 0 W/m 0,5 C 1,1 C 6,4 km/h (2 Bft) 97,87 %
18.04.2017 20:58 1,1 C 96 % 1020,7 hPa 0,0 l/m 4,6 km/h (1 Bft) SW 225 0 min 0,000 mm 0,0 UV-I 0 W/m 0,5 C 1,1 C 8,0 km/h (2 Bft) 94,74 %
18.04.2017 21:00 1,1 C 96 % 1020,7 hPa 0,0 l/m 6,2 km/h (2 Bft) SW 227 0 min 0,000 mm 0,0 UV-I 0 W/m 0,5 C 1,1 C 8,0 km/h (2 Bft) 98,11 %
18.04.2017 21:02 1,1 C 96 % 1020,7 hPa 0,0 l/m 7,3 km/h (2 Bft) SW 232 0 min 0,000 mm 0,0 UV-I 0 W/m 0,5 C 0,2 C 9,7 km/h (2 Bft) 96,00 %
18.04.2017 21:04 1,1 C 96 % 1020,7 hPa 0,0 l/m 6,8 km/h (2 Bft) SW 223 0 min 0,000 mm 0,0 UV-I 0 W/m 0,5 C 0,7 C 12,9 km/h (3 Bft) 100,00 %
18.04.2017 21:06 1,2 C 96 % 1020,8 hPa 0,0 l/m 7,2 km/h (2 Bft) SW 215 0 min 0,000 mm 0,0 UV-I 0 W/m 0,6 C 0,4 C 9,7 km/h (2 Bft) 97,73 %
18.04.2017 21:08 1,2 C 96 % 1020,8 hPa 0,0 l/m 6,9 km/h (2 Bft) SW 223 0 min 0,000 mm 0,0 UV-I 0 W/m 0,6 C 0,7 C 9,7 km/h (2 Bft) 100,00 %
18.04.2017 21:10 1,2 C 96 % 1020,8 hPa 0,0 l/m 7,9 km/h (2 Bft) SW 236 0 min 0,000 mm 0,0 UV-I 0 W/m 0,6 C -0,3 C 11,3 km/h (2 Bft) 91,49 %
18.04.2017 21:12 1,2 C 96 % 1020,8 hPa 0,0 l/m 7,4 km/h (2 Bft) SW 228 0 min 0,000 mm 0,0 UV-I 0 W/m 0,6 C 0,2 C 9,7 km/h (2 Bft) 94,74 %
18.04.2017 21:14 1,2 C 96 % 1020,8 hPa 0,0 l/m 5,5 km/h (1 Bft) SW 234 0 min 0,000 mm 0,0 UV-I 0 W/m 0,6 C 1,2 C 8,0 km/h (2 Bft) 98,11 %
18.04.2017 21:16 1,3 C 96 % 1020,8 hPa 0,0 l/m 7,6 km/h (2 Bft) SW 232 0 min 0,000 mm 0,0 UV-I 0 W/m 0,7 C 0,1 C 9,7 km/h (2 Bft) 96,23 %
18.04.2017 21:18 1,3 C 96 % 1020,8 hPa 0,0 l/m 6,3 km/h (2 Bft) SW 234 0 min 0,000 mm 0,0 UV-I 0 W/m 0,7 C 1,3 C 8,0 km/h (2 Bft) 97,73 %
18.04.2017 21:20 1,3 C 96 % 1020,9 hPa 0,0 l/m 5,6 km/h (1 Bft) W-SW 245 0 min 0,000 mm 0,0 UV-I 0 W/m 0,7 C 1,3 C 8,0 km/h (2 Bft) 97,73 %
18.04.2017 21:22 1,3 C 96 % 1020,9 hPa 0,0 l/m 4,4 km/h (1 Bft) W 264 0 min 0,000 mm 0,0 UV-I 0 W/m 0,7 C 1,3 C 6,4 km/h (2 Bft) 95,74 %
18.04.2017 21:24 1,4 C 96 % 1020,9 hPa 0,0 l/m 3,8 km/h (1 Bft) W 263 0 min 0,000 mm 0,0 UV-I 0 W/m 0,8 C 1,4 C 6,4 km/h (2 Bft) 95,74 %
18.04.2017 21:26 1,4 C 96 % 1021,0 hPa 0,0 l/m 2,0 km/h (1 Bft) W 263 0 min 0,000 mm 0,0 UV-I 0 W/m 0,8 C 1,4 C 3,2 km/h (1 Bft) 97,56 %
18.04.2017 21:28 1,4 C 96 % 1021,0 hPa 0,0 l/m 0,1 km/h (0 Bft) W 263 0 min 0,000 mm 0,0 UV-I 0 W/m 0,8 C 1,4 C 1,6 km/h (1 Bft) 96,00 %
18.04.2017 21:30 1,4 C 96 % 1021,1 hPa 0,0 l/m 0,1 km/h (0 Bft) W 263 0 min 0,000 mm 0,0 UV-I 0 W/m 0,8 C 1,4 C 1,6 km/h (1 Bft) 98,00 %
18.04.2017 21:32 1,4 C 96 % 1021,2 hPa 0,0 l/m 0,1 km/h (0 Bft) W 263 0 min 0,000 mm 0,0 UV-I 0 W/m 0,8 C 1,4 C 1,6 km/h (1 Bft) 96,00 %
18.04.2017 21:34 1,4 C 96 % 1021,1 hPa 0,0 l/m 0,0 km/h (0 Bft) W 263 0 min 0,000 mm 0,0 UV-I 0 W/m 0,8 C 1,4 C 0,0 km/h (0 Bft) 94,74 %
18.04.2017 21:36 1,4 C 96 % 1021,1 hPa 0,0 l/m 0,2 km/h (0 Bft) W 268 0 min 0,000 mm 0,0 UV-I 0 W/m 0,8 C 1,4 C 1,6 km/h (1 Bft) 98,11 %
18.04.2017 21:38 1,3 C 96 % 1021,3 hPa 0,0 l/m 3,0 km/h (1 Bft) N 355 0 min 0,000 mm 0,0 UV-I 0 W/m 0,7 C 1,3 C 8,0 km/h (2 Bft) 94,00 %
18.04.2017 21:40 1,2 C 96 % 1021,3 hPa 0,0 l/m 4,2 km/h (1 Bft) N 355 0 min 0,000 mm 0,0 UV-I 0 W/m 0,6 C 1,2 C 8,0 km/h (2 Bft) 94,87 %
18.04.2017 21:42 1,1 C 95 % 1021,4 hPa 0,0 l/m 3,5 km/h (1 Bft) N-NO 17 0 min 0,000 mm 0,0 UV-I 0 W/m 0,4 C 1,1 C 9,7 km/h (2 Bft) 95,92 %
18.04.2017 21:44 1,0 C 96 % 1021,4 hPa 0,0 l/m 2,6 km/h (1 Bft) N-NW 329 0 min 0,000 mm 0,0 UV-I 0 W/m 0,4 C 1,0 C 6,4 km/h (2 Bft) 96,00 %
18.04.2017 21:46 0,9 C 96 % 1021,4 hPa 0,0 l/m 4,7 km/h (1 Bft) N-NO 23 0 min 0,000 mm 0,0 UV-I 0 W/m 0,3 C 0,9 C 9,7 km/h (2 Bft) 98,00 %
18.04.2017 21:48 0,8 C 95 % 1021,2 hPa 0,0 l/m 0,8 km/h (0 Bft) O 81 0 min 0,000 mm 0,0 UV-I 0 W/m 0,1 C 0,8 C 3,2 km/h (1 Bft) 100,00 %
18.04.2017 21:50 0,8 C 96 % 1021,1 hPa 0,0 l/m 2,1 km/h (1 Bft) SO 131 0 min 0,000 mm 0,0 UV-I 0 W/m 0,2 C 0,8 C 4,8 km/h (1 Bft) 100,00 %
18.04.2017 21:52 0,7 C 96 % 1021,1 hPa 0,0 l/m 3,4 km/h (1 Bft) S-SO 165 0 min 0,000 mm 0,0 UV-I 0 W/m 0,1 C 0,7 C 8,0 km/h (2 Bft) 97,87 %
18.04.2017 21:54 0,7 C 96 % 1021,1 hPa 0,0 l/m 2,8 km/h (1 Bft) S 191 0 min 0,000 mm 0,0 UV-I 0 W/m 0,1 C 0,7 C 4,8 km/h (1 Bft) 98,11 %
18.04.2017 21:56 0,7 C 96 % 1021,1 hPa 0,0 l/m 3,8 km/h (1 Bft) S-SW 205 0 min 0,000 mm 0,0 UV-I 0 W/m 0,1 C 0,7 C 4,8 km/h (1 Bft) 98,00 %
18.04.2017 21:58 0,7 C 96 % 1021,1 hPa 0,0 l/m 4,0 km/h (1 Bft) SW 219 0 min 0,000 mm 0,0 UV-I 0 W/m 0,1 C 0,7 C 6,4 km/h (2 Bft) 100,00 %
18.04.2017 22:00 0,7 C 96 % 1021,1 hPa 0,0 l/m 4,0 km/h (1 Bft) SW 219 0 min 0,000 mm 0,0 UV-I 0 W/m 0,1 C 0,7 C 4,8 km/h (1 Bft) 98,00 %
18.04.2017 22:02 0,7 C 96 % 1021,1 hPa 0,0 l/m 4,8 km/h (1 Bft) SW 227 0 min 0,000 mm 0,0 UV-I 0 W/m 0,1 C 0,7 C 8,0 km/h (2 Bft) 100,00 %
18.04.2017 22:04 0,7 C 96 % 1021,1 hPa 0,0 l/m 4,1 km/h (1 Bft) W-SW 247 0 min 0,000 mm 0,0 UV-I 0 W/m 0,1 C 0,7 C 6,4 km/h (2 Bft) 97,56 %
18.04.2017 22:06 0,6 C 96 % 1021,1 hPa 0,0 l/m 4,6 km/h (1 Bft) SW 235 0 min 0,000 mm 0,0 UV-I 0 W/m 0,0 C 0,6 C 6,4 km/h (2 Bft) 100,00 %
18.04.2017 22:08 0,6 C 96 % 1021,1 hPa 0,0 l/m 5,6 km/h (1 Bft) SW 226 0 min 0,000 mm 0,0 UV-I 0 W/m 0,0 C 0,6 C 8,0 km/h (2 Bft) 98,08 %
18.04.2017 22:10 0,6 C 96 % 1021,1 hPa 0,0 l/m 4,9 km/h (1 Bft) SW 225 0 min 0,000 mm 0,0 UV-I 0 W/m 0,0 C 0,6 C 6,4 km/h (2 Bft) 100,00 %
18.04.2017 22:12 0,6 C 96 % 1021,1 hPa 0,0 l/m 5,1 km/h (1 Bft) W-SW 246 0 min 0,000 mm 0,0 UV-I 0 W/m 0,0 C 0,6 C 6,4 km/h (2 Bft) 100,00 %
18.04.2017 22:14 0,6 C 96 % 1021,1 hPa 0,0 l/m 4,7 km/h (1 Bft) W-SW 240 0 min 0,000 mm 0,0 UV-I 0 W/m 0,0 C 0,6 C 6,4 km/h (2 Bft) 100,00 %
18.04.2017 22:16 0,7 C 96 % 1021,1 hPa 0,0 l/m 4,8 km/h (1 Bft) SW 229 0 min 0,000 mm 0,0 UV-I 0 W/m 0,1 C 0,7 C 8,0 km/h (2 Bft) 96,23 %
18.04.2017 22:18 0,7 C 96 % 1021,1 hPa 0,0 l/m 4,6 km/h (1 Bft) SW 223 0 min 0,000 mm 0,0 UV-I 0 W/m 0,1 C 0,7 C 6,4 km/h (2 Bft) 100,00 %
18.04.2017 22:20 0,7 C 96 % 1021,0 hPa 0,0 l/m 4,6 km/h (1 Bft) W-SW 237 0 min 0,000 mm 0,0 UV-I 0 W/m 0,1 C 0,7 C 6,4 km/h (2 Bft) 100,00 %
18.04.2017 22:22 0,7 C 96 % 1021,0 hPa 0,0 l/m 4,6 km/h (1 Bft) SW 231 0 min 0,000 mm 0,0 UV-I 0 W/m 0,1 C 0,7 C 6,4 km/h (2 Bft) 97,44 %
18.04.2017 22:24 0,7 C 96 % 1021,1 hPa 0,0 l/m 4,0 km/h (1 Bft) SW 227 0 min 0,000 mm 0,0 UV-I 0 W/m 0,1 C 0,7 C 6,4 km/h (2 Bft) 98,00 %
18.04.2017 22:26 0,7 C 96 % 1021,0 hPa 0,0 l/m 4,3 km/h (1 Bft) SW 227 0 min 0,000 mm 0,0 UV-I 0 W/m 0,1 C 0,7 C 6,4 km/h (2 Bft) 100,00 %
18.04.2017 22:28 0,7 C 96 % 1021,1 hPa 0,0 l/m 3,6 km/h (1 Bft) W-SW 242 0 min 0,000 mm 0,0 UV-I 0 W/m 0,1 C 0,7 C 4,8 km/h (1 Bft) 98,59 %
18.04.2017 22:30 0,7 C 96 % 1021,1 hPa 0,0 l/m 3,2 km/h (1 Bft) W-SW 242 0 min 0,000 mm 0,0 UV-I 0 W/m 0,1 C 0,7 C 4,8 km/h (1 Bft) 97,14 %
18.04.2017 22:32 0,7 C 96 % 1021,1 hPa 0,0 l/m 2,9 km/h (1 Bft) W-SW 242 0 min 0,000 mm 0,0 UV-I 0 W/m 0,1 C 0,7 C 4,8 km/h (1 Bft) 96,23 %
18.04.2017 22:34 0,8 C 96 % 1021,1 hPa 0,0 l/m 2,4 km/h (1 Bft) W-SW 242 0 min 0,000 mm 0,0 UV-I 0 W/m 0,2 C 0,8 C 4,8 km/h (1 Bft) 97,87 %
18.04.2017 22:36 0,8 C 96 % 1021,1 hPa 0,0 l/m 2,4 km/h (1 Bft) W-SW 242 0 min 0,000 mm 0,0 UV-I 0 W/m 0,2 C 0,8 C 4,8 km/h (1 Bft) 97,37 %
18.04.2017 22:38 0,8 C 96 % 1021,1 hPa 0,0 l/m 2,9 km/h (1 Bft) W-SW 242 0 min 0,000 mm 0,0 UV-I 0 W/m 0,2 C 0,8 C 4,8 km/h (1 Bft) 100,00 %
18.04.2017 22:40 0,8 C 96 % 1021,1 hPa 0,0 l/m 2,7 km/h (1 Bft) W-SW 242 0 min 0,000 mm 0,0 UV-I 0 W/m 0,2 C 0,8 C 4,8 km/h (1 Bft) 100,00 %
18.04.2017 22:42 0,8 C 96 % 1021,1 hPa 0,0 l/m 2,1 km/h (1 Bft) W-SW 242 0 min 0,000 mm 0,0 UV-I 0 W/m 0,2 C 0,8 C 4,8 km/h (1 Bft) 100,00 %
18.04.2017 22:44 0,8 C 96 % 1021,1 hPa 0,0 l/m 2,3 km/h (1 Bft) W-SW 242 0 min 0,000 mm 0,0 UV-I 0 W/m 0,2 C 0,8 C 3,2 km/h (1 Bft) 94,59 %
18.04.2017 22:46 0,8 C 96 % 1021,1 hPa 0,0 l/m 3,9 km/h (1 Bft) W-SW 242 0 min 0,000 mm 0,0 UV-I 0 W/m 0,2 C 0,8 C 6,4 km/h (2 Bft) 98,21 %
18.04.2017 22:48 0,8 C 96 % 1021,1 hPa 0,0 l/m 4,5 km/h (1 Bft) W-SW 250 0 min 0,000 mm 0,0 UV-I 0 W/m 0,2 C 0,8 C 8,0 km/h (2 Bft) 97,87 %
18.04.2017 22:50 0,8 C 96 % 1021,1 hPa 0,0 l/m 4,8 km/h (1 Bft) W-SW 250 0 min 0,000 mm 0,0 UV-I 0 W/m 0,2 C 0,8 C 6,4 km/h (2 Bft) 100,00 %
18.04.2017 22:52 0,8 C 96 % 1021,2 hPa 0,0 l/m 5,4 km/h (1 Bft) W-SW 245 0 min 0,000 mm 0,0 UV-I 0 W/m 0,2 C 0,8 C 8,0 km/h (2 Bft) 98,11 %
18.04.2017 22:54 0,8 C 96 % 1021,1 hPa 0,0 l/m 3,6 km/h (1 Bft) W-SW 245 0 min 0,000 mm 0,0 UV-I 0 W/m 0,2 C 0,8 C 4,8 km/h (1 Bft) 98,00 %
18.04.2017 22:56 0,8 C 96 % 1021,2 hPa 0,0 l/m 4,7 km/h (1 Bft) W-SW 244 0 min 0,000 mm 0,0 UV-I 0 W/m 0,2 C 0,8 C 6,4 km/h (2 Bft) 97,56 %
18.04.2017 22:58 0,8 C 96 % 1021,1 hPa 0,0 l/m 5,6 km/h (1 Bft) W 267 0 min 0,000 mm 0,0 UV-I 0 W/m 0,2 C 0,8 C 9,7 km/h (2 Bft) 98,11 %
18.04.2017 23:00 0,8 C 96 % 1021,2 hPa 0,0 l/m 6,6 km/h (2 Bft) W 270 0 min 0,000 mm 0,0 UV-I 0 W/m 0,2 C 0,6 C 9,7 km/h (2 Bft) 100,00 %
18.04.2017 23:02 0,8 C 96 % 1021,2 hPa 0,0 l/m 4,1 km/h (1 Bft) W 269 0 min 0,000 mm 0,0 UV-I 0 W/m 0,2 C 0,8 C 6,4 km/h (2 Bft) 96,00 %
18.04.2017 23:04 0,9 C 96 % 1021,2 hPa 0,0 l/m 4,5 km/h (1 Bft) W 265 0 min 0,000 mm 0,0 UV-I 0 W/m 0,3 C 0,9 C 6,4 km/h (2 Bft) 97,73 %
18.04.2017 23:06 0,9 C 96 % 1021,2 hPa 0,0 l/m 4,7 km/h (1 Bft) W 261 0 min 0,000 mm 0,0 UV-I 0 W/m 0,3 C 0,9 C 6,4 km/h (2 Bft) 98,00 %
18.04.2017 23:08 0,9 C 96 % 1021,2 hPa 0,0 l/m 4,4 km/h (1 Bft) W 261 0 min 0,000 mm 0,0 UV-I 0 W/m 0,3 C 0,9 C 6,4 km/h (2 Bft) 100,00 %
18.04.2017 23:10 0,9 C 96 % 1021,3 hPa 0,0 l/m 4,3 km/h (1 Bft) W-SW 258 0 min 0,000 mm 0,0 UV-I 0 W/m 0,3 C 0,9 C 6,4 km/h (2 Bft) 96,00 %
18.04.2017 23:12 0,9 C 96 % 1021,3 hPa 0,0 l/m 3,9 km/h (1 Bft) W-SW 257 0 min 0,000 mm 0,0 UV-I 0 W/m 0,3 C 0,9 C 6,4 km/h (2 Bft) 95,74 %
18.04.2017 23:14 0,9 C 96 % 1021,3 hPa 0,0 l/m 5,1 km/h (1 Bft) W-SW 249 0 min 0,000 mm 0,0 UV-I 0 W/m 0,3 C 0,9 C 8,0 km/h (2 Bft) 92,11 %
18.04.2017 23:16 1,0 C 96 % 1021,2 hPa 0,0 l/m 5,5 km/h (1 Bft) W-SW 244 0 min 0,000 mm 0,0 UV-I 0 W/m 0,4 C 1,0 C 11,3 km/h (2 Bft) 96,23 %
18.04.2017 23:18 1,0 C 96 % 1021,2 hPa 0,0 l/m 4,5 km/h (1 Bft) W-SW 254 0 min 0,000 mm 0,0 UV-I 0 W/m 0,4 C 1,0 C 8,0 km/h (2 Bft) 96,23 %
18.04.2017 23:20 1,1 C 96 % 1021,3 hPa 0,0 l/m 4,9 km/h (1 Bft) SW 229 0 min 0,000 mm 0,0 UV-I 0 W/m 0,5 C 1,1 C 8,0 km/h (2 Bft) 93,62 %
18.04.2017 23:22 1,1 C 96 % 1021,3 hPa 0,0 l/m 5,5 km/h (1 Bft) W-SW 240 0 min 0,000 mm 0,0 UV-I 0 W/m 0,5 C 1,1 C 8,0 km/h (2 Bft) 95,65 %
18.04.2017 23:24 1,1 C 96 % 1021,3 hPa 0,0 l/m 5,3 km/h (1 Bft) W-SW 242 0 min 0,000 mm 0,0 UV-I 0 W/m 0,5 C 1,1 C 8,0 km/h (2 Bft) 94,12 %
18.04.2017 23:26 1,1 C 96 % 1021,3 hPa 0,0 l/m 5,5 km/h (1 Bft) W-SW 246 0 min 0,000 mm 0,0 UV-I 0 W/m 0,5 C 1,1 C 11,3 km/h (2 Bft) 87,50 %
18.04.2017 23:28 1,2 C 96 % 1021,3 hPa 0,0 l/m 6,0 km/h (2 Bft) W-SW 240 0 min 0,000 mm 0,0 UV-I 0 W/m 0,6 C 1,2 C 9,7 km/h (2 Bft) 94,52 %
18.04.2017 23:30 1,2 C 96 % 1021,3 hPa 0,0 l/m 5,0 km/h (1 Bft) W-SW 250 0 min 0,000 mm 0,0 UV-I 0 W/m 0,6 C 1,2 C 6,4 km/h (2 Bft) 92,68 %
18.04.2017 23:32 1,2 C 96 % 1021,3 hPa 0,0 l/m 4,9 km/h (1 Bft) W 263 0 min 0,000 mm 0,0 UV-I 0 W/m 0,6 C 1,2 C 6,4 km/h (2 Bft) 94,00 %
18.04.2017 23:34 1,2 C 97 % 1021,4 hPa 0,0 l/m 4,8 km/h (1 Bft) W 263 0 min 0,000 mm 0,0 UV-I 0 W/m 0,8 C 1,2 C 6,4 km/h (2 Bft) 93,62 %
18.04.2017 23:36 1,3 C 97 % 1021,3 hPa 0,0 l/m 3,4 km/h (1 Bft) W 263 0 min 0,000 mm 0,0 UV-I 0 W/m 0,9 C 1,3 C 4,8 km/h (1 Bft) 94,87 %
18.04.2017 23:38 1,3 C 97 % 1021,3 hPa 0,0 l/m 4,3 km/h (1 Bft) W 264 0 min 0,000 mm 0,0 UV-I 0 W/m 0,9 C 1,3 C 9,7 km/h (2 Bft) 93,62 %
18.04.2017 23:40 1,3 C 97 % 1021,4 hPa 0,0 l/m 2,1 km/h (1 Bft) W 264 0 min 0,000 mm 0,0 UV-I 0 W/m 0,9 C 1,3 C 3,2 km/h (1 Bft) 95,74 %
18.04.2017 23:42 1,4 C 97 % 1021,4 hPa 0,0 l/m 3,2 km/h (1 Bft) W 264 0 min 0,000 mm 0,0 UV-I 0 W/m 1,0 C 1,4 C 4,8 km/h (1 Bft) 93,62 %
18.04.2017 23:44 1,3 C 96 % 1021,4 hPa 0,0 l/m 2,0 km/h (1 Bft) W 264 0 min 0,000 mm 0,0 UV-I 0 W/m 0,7 C 1,3 C 3,2 km/h (1 Bft) 94,00 %
18.04.2017 23:46 1,4 C 96 % 1021,4 hPa 0,0 l/m 2,6 km/h (1 Bft) W 269 0 min 0,000 mm 0,0 UV-I 0 W/m 0,8 C 1,4 C 6,4 km/h (2 Bft) 91,49 %
18.04.2017 23:48 1,4 C 96 % 1021,4 hPa 0,0 l/m 2,8 km/h (1 Bft) W 269 0 min 0,000 mm 0,0 UV-I 0 W/m 0,8 C 1,4 C 4,8 km/h (1 Bft) 95,74 %
18.04.2017 23:50 1,4 C 96 % 1021,4 hPa 0,0 l/m 2,6 km/h (1 Bft) W 269 0 min 0,000 mm 0,0 UV-I 0 W/m 0,8 C 1,4 C 4,8 km/h (1 Bft) 92,00 %
18.04.2017 23:52 1,4 C 96 % 1021,4 hPa 0,0 l/m 3,5 km/h (1 Bft) W 269 0 min 0,000 mm 0,0 UV-I 0 W/m 0,8 C 1,4 C 6,4 km/h (2 Bft) 96,00 %
18.04.2017 23:54 1,5 C 96 % 1021,4 hPa 0,0 l/m 2,7 km/h (1 Bft) W 269 0 min 0,000 mm 0,0 UV-I 0 W/m 0,9 C 1,5 C 4,8 km/h (1 Bft) 94,29 %
18.04.2017 23:56 1,5 C 96 % 1021,5 hPa 0,0 l/m 1,1 km/h (1 Bft) W 269 0 min 0,000 mm 0,0 UV-I 0 W/m 0,9 C 1,5 C 3,2 km/h (1 Bft) 96,61 %
18.04.2017 23:58 1,5 C 96 % 1021,5 hPa 0,0 l/m 1,7 km/h (1 Bft) W 269 0 min 0,000 mm 0,0 UV-I 0 W/m 0,9 C 1,5 C 3,2 km/h (1 Bft) 97,37 %
_ Min-Zeit 10:08 14:58 03:42 - 19:52 - - - - - - 19:30 15:24 19:52 00:02
Minimum _ 0,5 C 83 % 1014,6 hPa - 0,0 km/h (0 Bft) - - - - - - -0,4 C -6,4 C 0,0 km/h (0 Bft) 15,38 %
_ Max-Zeit 14:56 23:34 23:56 08:38 15:24 - - 08:10 14:00 13:52 13:52 14:56 15:00 15:22 00:01
Maximum _ 5,7 C 97 % 1021,5 hPa 0,2 l/m 24,0 km/h
S (4 Bft)
- - 2 min 0,178 mm 2,8 UV-I 1078 W/m 3,4 C 5,6 C 40,2 km/h
SW (6 Bft)
100,00 %
Durchschnitt _ 3,0 C 91 % 1017,3 hPa #7,2 l/m 7,4 km/h (2 Bft) W-SW - #1:28 h #0,838 mm 1,1 UV-I 142 W/m 1,7 C 1,4 C 12,5 km/h (3 Bft) 96,87 %